Time,TemperatureF,DewpointF,PressureIn,WindDirection,WindDirectionDegrees,WindSpeedMPH,WindSpeedGustMPH,Humidity,HourlyPrecipIn,Conditions,Clouds,dailyrainin,SoftwareType,DateUTC
2013-07-23 00:03:00,75.9,45.5,29.62,NNE,22,5.8,5.8,34,0.00,CLR,,0.00,WeatherDisplay:10.37,2013-07-22 21:03:00,
2013-07-23 00:04:00,75.9,45.5,29.62,NNW,338,5.8,5.8,34,0.00,CLR,,0.00,WeatherDisplay:10.37,2013-07-22 21:04:00,
2013-07-23 00:09:00,75.7,45.4,29.62,NNW,338,4.3,4.3,34,0.00,CLR,,0.00,WeatherDisplay:10.37,2013-07-22 21:09:00,
2013-07-23 00:14:00,75.7,45.4,29.62,NW,315,8.1,8.1,34,0.00,CLR,,0.00,WeatherDisplay:10.37,2013-07-22 21:14:00,
2013-07-23 00:15:00,75.7,45.4,29.62,West,270,5.8,5.8,34,0.00,CLR,,0.00,WeatherDisplay:10.37,2013-07-22 21:15:00,
2013-07-23 00:19:00,75.7,45.4,29.62,NNW,338,8.1,8.1,34,0.00,CLR,,0.00,WeatherDisplay:10.37,2013-07-22 21:19:00,
2013-07-23 00:20:00,75.7,45.4,29.62,West,270,8.1,8.1,34,0.00,CLR,,0.00,WeatherDisplay:10.37,2013-07-22 21:20:00,
2013-07-23 00:24:00,75.7,45.4,29.62,NNW,338,9.2,9.2,34,0.00,CLR,,0.00,WeatherDisplay:10.37,2013-07-22 21:24:00,
2013-07-23 00:25:00,75.7,45.4,29.62,NNW,338,8.1,8.1,34,0.00,CLR,,0.00,WeatherDisplay:10.37,2013-07-22 21:25:00,
2013-07-23 00:29:00,75.7,45.4,29.62,North,0,5.8,5.8,34,0.00,CLR,,0.00,WeatherDisplay:10.37,2013-07-22 21:29:00,
2013-07-23 00:30:00,75.7,45.4,29.62,NNW,338,5.8,5.8,34,0.00,CLR,,0.00,WeatherDisplay:10.37,2013-07-22 21:30:00,
2013-07-23 00:34:00,75.7,45.4,29.62,NNW,338,9.2,9.2,34,0.00,CLR,,0.00,WeatherDisplay:10.37,2013-07-22 21:34:00,
2013-07-23 00:35:00,75.7,45.4,29.62,NNW,338,8.1,8.1,34,0.00,CLR,,0.00,WeatherDisplay:10.37,2013-07-22 21:35:00,
2013-07-23 00:36:00,75.7,45.4,29.62,North,0,9.2,9.2,34,0.00,CLR,,0.00,WeatherDisplay:10.37,2013-07-22 21:36:00,
2013-07-23 00:39:00,75.7,45.4,29.62,NW,315,7.8,7.8,34,0.00,CLR,,0.00,WeatherDisplay:10.37,2013-07-22 21:39:00,
2013-07-23 00:40:00,75.7,45.4,29.62,NNW,338,6.9,6.9,34,0.00,CLR,,0.00,WeatherDisplay:10.37,2013-07-22 21:40:00,
2013-07-23 00:41:00,75.7,45.4,29.62,NNW,338,6.9,6.9,34,0.00,CLR,,0.00,WeatherDisplay:10.37,2013-07-22 21:41:00,
2013-07-23 00:44:00,75.6,45.2,29.62,NNW,338,3.8,3.8,34,0.00,CLR,,0.00,WeatherDisplay:10.37,2013-07-22 21:44:00,
2013-07-23 00:45:00,75.6,45.2,29.62,NNW,340,1.0,7.0,34,0.00,CLR,,0.00,WeatherDisplay:10.37,2013-07-22 21:45:00,
2013-07-23 00:46:00,75.6,45.2,29.62,North,0,4.6,4.6,34,0.00,CLR,,0.00,WeatherDisplay:10.37,2013-07-22 21:46:00,
2013-07-23 00:50:00,75.6,45.2,29.62,WNW,292,6.9,6.9,34,0.00,CLR,,0.00,WeatherDisplay:10.37,2013-07-22 21:50:00,
2013-07-23 00:52:00,75.6,45.2,29.62,NW,315,9.2,9.2,34,0.00,CLR,,0.00,WeatherDisplay:10.37,2013-07-22 21:52:00,
2013-07-23 00:55:00,75.6,45.2,29.62,North,0,8.1,8.1,34,0.00,CLR,,0.00,WeatherDisplay:10.37,2013-07-22 21:55:00,
2013-07-23 00:57:00,75.6,45.2,29.62,NNW,338,9.2,9.2,34,0.00,CLR,,0.00,WeatherDisplay:10.37,2013-07-22 21:57:00,
2013-07-23 01:00:00,75.6,45.2,29.62,NNE,22,6.0,6.0,34,0.00,CLR,,0.00,WeatherDisplay:10.37,2013-07-22 22:00:00,
2013-07-23 01:01:00,75.6,45.2,29.62,NW,315,8.1,8.1,34,0.00,CLR,,0.00,WeatherDisplay:10.37,2013-07-22 22:01:00,
2013-07-23 01:02:00,75.6,45.2,29.62,NNW,338,11.4,11.4,34,0.00,CLR,,0.00,WeatherDisplay:10.37,2013-07-22 22:02:00,
2013-07-23 01:05:00,75.6,45.2,29.62,NNW,338,8.1,8.1,34,0.00,CLR,,0.00,WeatherDisplay:10.37,2013-07-22 22:05:00,
2013-07-23 01:06:00,75.6,45.2,29.62,North,0,8.1,8.1,34,0.00,CLR,,0.00,WeatherDisplay:10.37,2013-07-22 22:06:00,
2013-07-23 01:07:00,75.6,45.2,29.62,NE,45,8.1,8.1,34,0.00,CLR,,0.00,WeatherDisplay:10.37,2013-07-22 22:07:00,
2013-07-23 01:10:00,75.4,45.1,29.62,NNW,338,4.6,4.6,34,0.00,CLR,,0.00,WeatherDisplay:10.37,2013-07-22 22:10:00,
2013-07-23 01:11:00,75.4,45.1,29.62,NNW,338,5.9,5.9,34,0.00,CLR,,0.00,WeatherDisplay:10.37,2013-07-22 22:11:00,
2013-07-23 01:12:00,75.4,45.1,29.62,NW,315,9.2,9.2,34,0.00,CLR,,0.00,WeatherDisplay:10.37,2013-07-22 22:12:00,
2013-07-23 01:15:00,75.4,45.1,29.62,NNW,338,9.2,9.2,34,0.00,CLR,,0.00,WeatherDisplay:10.37,2013-07-22 22:15:00,
2013-07-23 01:17:00,75.6,45.2,29.62,NNW,338,8.1,8.1,34,0.00,CLR,,0.00,WeatherDisplay:10.37,2013-07-22 22:17:00,
2013-07-23 01:20:00,75.4,45.1,29.62,NNW,338,4.6,4.6,34,0.00,CLR,,0.00,WeatherDisplay:10.37,2013-07-22 22:20:00,
2013-07-23 01:22:00,75.4,45.1,29.62,NNW,338,4.6,4.6,34,0.00,CLR,,0.00,WeatherDisplay:10.37,2013-07-22 22:22:00,
2013-07-23 01:25:00,75.4,45.1,29.62,NW,315,5.8,5.8,34,0.00,CLR,,0.00,WeatherDisplay:10.37,2013-07-22 22:25:00,
2013-07-23 01:26:00,75.4,45.1,29.62,NNW,338,5.8,5.8,34,0.00,CLR,,0.00,WeatherDisplay:10.37,2013-07-22 22:26:00,
2013-07-23 01:27:00,75.4,45.1,29.62,North,0,10.9,10.9,34,0.00,CLR,,0.00,WeatherDisplay:10.37,2013-07-22 22:27:00,
2013-07-23 01:29:00,75.4,45.1,29.62,NNW,338,9.2,9.2,34,0.00,CLR,,0.00,WeatherDisplay:10.37,2013-07-22 22:29:00,
2013-07-23 01:30:00,75.4,45.1,29.62,WNW,292,8.1,8.1,34,0.00,CLR,,0.00,WeatherDisplay:10.37,2013-07-22 22:30:00,
2013-07-23 01:31:00,75.4,45.1,29.62,NNW,338,6.9,6.9,34,0.00,CLR,,0.00,WeatherDisplay:10.37,2013-07-22 22:31:00,
2013-07-23 01:32:00,75.4,45.1,29.62,NNW,338,9.2,9.2,34,0.00,CLR,,0.00,WeatherDisplay:10.37,2013-07-22 22:32:00,
2013-07-23 01:33:00,75.4,45.1,29.62,NNW,338,9.2,9.2,34,0.00,CLR,,0.00,WeatherDisplay:10.37,2013-07-22 22:33:00,
2013-07-23 01:34:00,75.4,45.1,29.62,NNW,338,5.8,5.9,34,0.00,CLR,,0.00,WeatherDisplay:10.37,2013-07-22 22:34:00,
2013-07-23 01:35:00,75.4,45.1,29.62,NNW,338,8.1,8.1,34,0.00,CLR,,0.00,WeatherDisplay:10.37,2013-07-22 22:35:00,
2013-07-23 01:36:00,75.4,45.1,29.62,NNW,338,5.8,5.8,34,0.00,CLR,,0.00,WeatherDisplay:10.37,2013-07-22 22:36:00,
2013-07-23 01:38:00,75.4,45.1,29.59,NNW,338,6.9,6.9,34,0.00,CLR,,0.00,WeatherDisplay:10.37,2013-07-22 22:38:00,
2013-07-23 01:39:00,75.2,44.9,29.59,NNW,338,6.9,6.9,34,0.00,CLR,,0.00,WeatherDisplay:10.37,2013-07-22 22:39:00,
2013-07-23 01:41:00,75.2,44.9,29.59,North,0,3.8,3.8,34,0.00,CLR,,0.00,WeatherDisplay:10.37,2013-07-22 22:41:00,
2013-07-23 01:43:00,75.2,44.9,29.59,North,0,5.8,5.8,34,0.00,CLR,,0.00,WeatherDisplay:10.37,2013-07-22 22:43:00,
2013-07-23 01:44:00,75.2,44.9,29.59,North,0,6.9,6.9,34,0.00,CLR,,0.00,WeatherDisplay:10.37,2013-07-22 22:44:00,
2013-07-23 01:46:00,75.2,44.9,29.59,North,0,6.9,6.9,34,0.00,CLR,,0.00,WeatherDisplay:10.37,2013-07-22 22:46:00,
2013-07-23 01:47:00,75.2,44.9,29.59,North,0,6.9,6.9,34,0.00,CLR,,0.00,WeatherDisplay:10.37,2013-07-22 22:47:00,
2013-07-23 01:48:00,75.2,44.9,29.59,NNW,338,7.1,7.1,34,0.00,CLR,,0.00,WeatherDisplay:10.37,2013-07-22 22:48:00,
2013-07-23 01:49:00,75.2,44.9,29.59,NNW,338,6.9,6.9,34,0.00,CLR,,0.00,WeatherDisplay:10.37,2013-07-22 22:49:00,
2013-07-23 01:51:00,75.0,44.7,29.59,NNW,338,6.0,6.0,34,0.00,CLR,,0.00,WeatherDisplay:10.37,2013-07-22 22:51:00,
2013-07-23 01:52:00,75.0,44.7,29.59,North,0,5.8,5.8,34,0.00,CLR,,0.00,WeatherDisplay:10.37,2013-07-22 22:52:00,
2013-07-23 01:53:00,75.0,44.7,29.62,North,0,6.9,6.9,34,0.00,CLR,,0.00,WeatherDisplay:10.37,2013-07-22 22:53:00,
2013-07-23 01:54:00,75.0,44.7,29.62,NW,315,6.9,6.9,34,0.00,CLR,,0.00,WeatherDisplay:10.37,2013-07-22 22:54:00,
2013-07-23 01:56:00,75.0,44.7,29.62,NNW,338,6.0,6.0,34,0.00,CLR,,0.00,WeatherDisplay:10.37,2013-07-22 22:56:00,
2013-07-23 01:57:00,75.0,44.7,29.62,NNW,338,5.8,5.8,34,0.00,CLR,,0.00,WeatherDisplay:10.37,2013-07-22 22:57:00,
2013-07-23 01:58:00,75.0,44.7,29.62,NW,315,4.6,4.6,34,0.00,CLR,,0.00,WeatherDisplay:10.37,2013-07-22 22:58:00,
2013-07-23 02:00:00,75.0,44.7,29.62,North,0,4.6,4.6,34,0.00,CLR,,0.00,WeatherDisplay:10.37,2013-07-22 23:00:00,
2013-07-23 02:01:00,74.8,44.6,29.62,North,0,2.9,2.9,34,0.00,CLR,,0.00,WeatherDisplay:10.37,2013-07-22 23:01:00,
2013-07-23 02:02:00,74.8,44.6,29.62,NNW,338,4.6,4.6,34,0.00,CLR,,0.00,WeatherDisplay:10.37,2013-07-22 23:02:00,
2013-07-23 02:03:00,74.8,44.6,29.62,NNW,338,5.9,5.9,34,0.00,CLR,,0.00,WeatherDisplay:10.37,2013-07-22 23:03:00,
2013-07-23 02:05:00,74.8,45.3,29.62,NNW,342,3.0,6.0,35,0.00,CLR,,0.00,WeatherDisplay:10.37,2013-07-22 23:05:00,
2013-07-23 02:06:00,74.8,44.6,29.62,NNW,338,2.9,2.9,34,0.00,CLR,,0.00,WeatherDisplay:10.37,2013-07-22 23:06:00,
2013-07-23 02:07:00,74.8,44.6,29.62,NNW,338,5.8,5.8,34,0.00,CLR,,0.00,WeatherDisplay:10.37,2013-07-22 23:07:00,
2013-07-23 02:08:00,74.8,45.3,29.62,NNE,22,4.6,4.6,35,0.00,CLR,,0.00,WeatherDisplay:10.37,2013-07-22 23:08:00,
2013-07-23 02:09:00,74.8,45.3,29.62,NNE,22,4.6,4.6,35,0.00,CLR,,0.00,WeatherDisplay:10.37,2013-07-22 23:09:00,
2013-07-23 02:10:00,74.7,45.2,29.62,NNE,22,4.6,4.6,35,0.00,CLR,,0.00,WeatherDisplay:10.37,2013-07-22 23:10:00,
2013-07-23 02:11:00,74.7,45.2,29.62,NNW,338,4.6,4.6,35,0.00,CLR,,0.00,WeatherDisplay:10.37,2013-07-22 23:11:00,
2013-07-23 02:12:00,74.7,45.2,29.62,NNW,338,3.5,3.5,35,0.00,CLR,,0.00,WeatherDisplay:10.37,2013-07-22 23:12:00,
2013-07-23 02:14:00,74.7,45.2,29.62,NNW,338,5.8,5.8,35,0.00,CLR,,0.00,WeatherDisplay:10.37,2013-07-22 23:14:00,
2013-07-23 02:15:00,74.7,45.2,29.62,NW,315,3.8,3.8,35,0.00,CLR,,0.00,WeatherDisplay:10.37,2013-07-22 23:15:00,
2013-07-23 02:16:00,74.7,45.2,29.62,NNW,338,4.6,4.6,35,0.00,CLR,,0.00,WeatherDisplay:10.37,2013-07-22 23:16:00,
2013-07-23 02:18:00,74.5,45.0,29.62,NNW,338,3.5,3.5,35,0.00,CLR,,0.00,WeatherDisplay:10.37,2013-07-22 23:18:00,
2013-07-23 02:19:00,74.5,45.0,29.62,North,0,4.3,4.3,35,0.00,CLR,,0.00,WeatherDisplay:10.37,2013-07-22 23:19:00,
2013-07-23 02:20:00,74.5,45.0,29.62,NNE,22,5.8,5.8,35,0.00,CLR,,0.00,WeatherDisplay:10.37,2013-07-22 23:20:00,
2013-07-23 02:22:00,74.5,45.0,29.62,NW,315,3.6,3.6,35,0.00,CLR,,0.00,WeatherDisplay:10.37,2013-07-22 23:22:00,
2013-07-23 02:23:00,74.5,45.0,29.65,NNE,22,3.5,3.5,35,0.00,CLR,,0.00,WeatherDisplay:10.37,2013-07-22 23:23:00,
2013-07-23 02:24:00,74.5,45.0,29.65,North,0,3.5,3.5,35,0.00,CLR,,0.00,WeatherDisplay:10.37,2013-07-22 23:24:00,
2013-07-23 02:25:00,74.3,44.9,29.65,NW,315,2.4,2.4,35,0.00,CLR,,0.00,WeatherDisplay:10.37,2013-07-22 23:25:00,
2013-07-23 02:27:00,74.3,44.9,29.65,NNW,338,3.3,3.3,35,0.00,CLR,,0.00,WeatherDisplay:10.37,2013-07-22 23:27:00,
2013-07-23 02:28:00,74.3,44.9,29.65,NNE,22,4.0,4.0,35,0.00,CLR,,0.00,WeatherDisplay:10.37,2013-07-22 23:28:00,
2013-07-23 02:29:00,74.3,44.9,29.65,NNW,338,4.6,4.6,35,0.00,CLR,,0.00,WeatherDisplay:10.37,2013-07-22 23:29:00,
2013-07-23 02:30:00,74.3,44.9,29.65,North,0,5.6,5.6,35,0.00,CLR,,0.00,WeatherDisplay:10.37,2013-07-22 23:30:00,
2013-07-23 02:32:00,74.3,44.9,29.65,NNW,338,4.6,4.6,35,0.00,CLR,,0.00,WeatherDisplay:10.37,2013-07-22 23:32:00,
2013-07-23 02:34:00,74.3,44.9,29.65,NNE,22,3.5,3.5,35,0.00,CLR,,0.00,WeatherDisplay:10.37,2013-07-22 23:34:00,
2013-07-23 02:35:00,74.3,44.9,29.65,NNW,338,4.6,4.6,35,0.00,CLR,,0.00,WeatherDisplay:10.37,2013-07-22 23:35:00,
2013-07-23 02:37:00,74.3,44.9,29.65,NW,315,4.6,4.6,35,0.00,CLR,,0.00,WeatherDisplay:10.37,2013-07-22 23:37:00,
2013-07-23 02:39:00,74.1,44.7,29.65,NNW,338,4.6,4.6,35,0.00,CLR,,0.00,WeatherDisplay:10.37,2013-07-22 23:39:00,
2013-07-23 02:40:00,74.1,44.7,29.65,NNW,338,4.6,4.6,35,0.00,CLR,,0.00,WeatherDisplay:10.37,2013-07-22 23:40:00,
2013-07-23 02:42:00,74.1,44.7,29.65,NNW,338,3.5,3.5,35,0.00,CLR,,0.00,WeatherDisplay:10.37,2013-07-22 23:42:00,
2013-07-23 02:43:00,74.1,44.7,29.65,NNW,338,2.9,2.9,35,0.00,CLR,,0.00,WeatherDisplay:10.37,2013-07-22 23:43:00,
2013-07-23 02:45:00,74.1,45.5,29.65,NNW,338,3.5,3.5,36,0.00,CLR,,0.00,WeatherDisplay:10.37,2013-07-22 23:45:00,
2013-07-23 02:46:00,74.1,45.5,29.65,NNW,338,3.5,3.5,36,0.00,CLR,,0.00,WeatherDisplay:10.37,2013-07-22 23:46:00,
2013-07-23 02:47:00,74.1,45.5,29.65,North,0,3.1,3.1,36,0.00,CLR,,0.00,WeatherDisplay:10.37,2013-07-22 23:47:00,
2013-07-23 02:48:00,74.1,45.5,29.65,NNW,338,3.6,3.6,36,0.00,CLR,,0.00,WeatherDisplay:10.37,2013-07-22 23:48:00,
2013-07-23 02:50:00,73.9,45.3,29.65,NNW,338,4.6,4.6,36,0.00,CLR,,0.00,WeatherDisplay:10.37,2013-07-22 23:50:00,
2013-07-23 02:51:00,73.9,45.3,29.65,NNW,338,3.6,3.6,36,0.00,CLR,,0.00,WeatherDisplay:10.37,2013-07-22 23:51:00,
2013-07-23 02:53:00,73.9,45.3,29.62,NNW,338,2.3,2.4,36,0.00,CLR,,0.00,WeatherDisplay:10.37,2013-07-22 23:53:00,
2013-07-23 02:56:00,73.9,45.3,29.62,NNW,338,3.1,3.1,36,0.00,CLR,,0.00,WeatherDisplay:10.37,2013-07-22 23:56:00,
2013-07-23 02:58:00,73.9,45.3,29.62,North,0,4.6,4.6,36,0.00,CLR,,0.00,WeatherDisplay:10.37,2013-07-22 23:58:00,
2013-07-23 03:01:00,73.9,45.3,29.62,NW,315,3.6,3.6,36,0.00,CLR,,0.00,WeatherDisplay:10.37,2013-07-23 00:01:00,
2013-07-23 03:02:00,73.8,45.1,29.62,NNW,338,4.6,4.6,36,0.00,CLR,,0.00,WeatherDisplay:10.37,2013-07-23 00:02:00,
2013-07-23 03:03:00,73.9,45.3,29.62,NNW,338,4.6,4.6,36,0.00,CLR,,0.00,WeatherDisplay:10.37,2013-07-23 00:03:00,
2013-07-23 03:06:00,73.8,45.1,29.62,NNW,338,3.5,3.5,36,0.00,CLR,,0.00,WeatherDisplay:10.37,2013-07-23 00:06:00,
2013-07-23 03:07:00,73.8,45.1,29.62,NNW,338,3.5,3.5,36,0.00,CLR,,0.00,WeatherDisplay:10.37,2013-07-23 00:07:00,
2013-07-23 03:08:00,73.8,45.1,29.62,NNE,22,3.5,3.5,36,0.00,CLR,,0.00,WeatherDisplay:10.37,2013-07-23 00:08:00,
2013-07-23 03:09:00,73.8,45.1,29.62,NNE,22,3.6,3.6,36,0.00,CLR,,0.00,WeatherDisplay:10.37,2013-07-23 00:09:00,
2013-07-23 03:11:00,73.8,45.1,29.62,NNW,338,3.5,3.5,36,0.00,CLR,,0.00,WeatherDisplay:10.37,2013-07-23 00:11:00,
2013-07-23 03:12:00,73.8,45.1,29.62,NNW,338,3.5,3.5,36,0.00,CLR,,0.00,WeatherDisplay:10.37,2013-07-23 00:12:00,
2013-07-23 03:13:00,73.6,45.0,29.62,NNW,338,3.5,3.5,36,0.00,CLR,,0.00,WeatherDisplay:10.37,2013-07-23 00:13:00,
2013-07-23 03:14:00,73.6,45.7,29.62,NNW,338,2.3,2.3,37,0.00,CLR,,0.00,WeatherDisplay:10.37,2013-07-23 00:14:00,
2013-07-23 03:16:00,73.6,45.0,29.62,NW,315,3.5,3.5,36,0.00,CLR,,0.00,WeatherDisplay:10.37,2013-07-23 00:16:00,
2013-07-23 03:17:00,73.6,45.0,29.62,NNW,338,3.5,0.0,36,0.00,CLR,,0.00,WeatherDisplay:10.37,2013-07-23 00:17:00,
2013-07-23 03:19:00,73.6,45.7,29.62,NNW,338,3.5,3.5,37,0.00,CLR,,0.00,WeatherDisplay:10.37,2013-07-23 00:19:00,
2013-07-23 03:21:00,73.6,45.7,29.62,NW,315,2.3,2.3,37,0.00,CLR,,0.00,WeatherDisplay:10.37,2013-07-23 00:21:00,
2013-07-23 03:23:00,73.6,45.7,29.62,NW,315,4.6,4.6,37,0.00,CLR,,0.00,WeatherDisplay:10.37,2013-07-23 00:23:00,
2013-07-23 03:24:00,73.6,46.4,29.62,NNW,338,4.6,4.6,38,0.00,CLR,,0.00,WeatherDisplay:10.37,2013-07-23 00:24:00,
2013-07-23 03:25:00,73.6,46.4,29.62,North,0,5.8,5.8,38,0.00,CLR,,0.00,WeatherDisplay:10.37,2013-07-23 00:25:00,
2013-07-23 03:27:00,73.6,45.7,29.62,NNW,338,0.0,0.0,37,0.00,CLR,,0.00,WeatherDisplay:10.37,2013-07-23 00:27:00,
2013-07-23 03:28:00,73.6,45.7,29.62,NNW,338,4.7,0.0,37,0.00,CLR,,0.00,WeatherDisplay:10.37,2013-07-23 00:28:00,
2013-07-23 03:29:00,73.6,46.4,29.62,NNW,338,4.6,4.6,38,0.00,CLR,,0.00,WeatherDisplay:10.37,2013-07-23 00:29:00,
2013-07-23 03:30:00,73.6,45.7,29.62,NNW,338,2.9,2.9,37,0.00,CLR,,0.00,WeatherDisplay:10.37,2013-07-23 00:30:00,
2013-07-23 03:32:00,73.6,46.4,29.62,North,0,2.3,2.9,38,0.00,CLR,,0.00,WeatherDisplay:10.37,2013-07-23 00:32:00,
2013-07-23 03:33:00,73.6,45.7,29.62,North,0,1.2,0.0,37,0.00,CLR,,0.00,WeatherDisplay:10.37,2013-07-23 00:33:00,
2013-07-23 03:34:00,73.6,46.4,29.62,NNW,338,4.7,4.7,38,0.00,CLR,,0.00,WeatherDisplay:10.37,2013-07-23 00:34:00,
2013-07-23 03:36:00,73.6,46.4,29.62,NNW,338,5.8,5.8,38,0.00,CLR,,0.00,WeatherDisplay:10.37,2013-07-23 00:36:00,
2013-07-23 03:37:00,73.6,46.4,29.62,NNW,338,2.3,2.3,38,0.00,CLR,,0.00,WeatherDisplay:10.37,2013-07-23 00:37:00,
2013-07-23 03:38:00,73.6,46.4,29.62,NW,315,2.4,2.4,38,0.00,CLR,,0.00,WeatherDisplay:10.37,2013-07-23 00:38:00,
2013-07-23 03:40:00,73.6,46.4,29.62,NNW,338,3.5,3.5,38,0.00,CLR,,0.00,WeatherDisplay:10.37,2013-07-23 00:40:00,
2013-07-23 03:41:00,73.6,47.1,29.62,NNW,338,2.3,2.3,39,0.00,CLR,,0.00,WeatherDisplay:10.37,2013-07-23 00:41:00,
2013-07-23 03:42:00,73.6,47.1,29.62,WNW,292,4.6,4.6,39,0.00,CLR,,0.00,WeatherDisplay:10.37,2013-07-23 00:42:00,
2013-07-23 03:43:00,73.6,46.4,29.62,NNW,338,4.6,4.6,38,0.00,CLR,,0.00,WeatherDisplay:10.37,2013-07-23 00:43:00,
2013-07-23 03:45:00,73.6,47.1,29.62,NNW,338,4.6,4.6,39,0.00,CLR,,0.00,WeatherDisplay:10.37,2013-07-23 00:45:00,
2013-07-23 03:46:00,73.6,47.1,29.62,NNW,338,4.6,4.6,39,0.00,CLR,,0.00,WeatherDisplay:10.37,2013-07-23 00:46:00,
2013-07-23 03:47:00,73.6,47.1,29.62,NNW,338,3.5,3.5,39,0.00,CLR,,0.00,WeatherDisplay:10.37,2013-07-23 00:47:00,
2013-07-23 03:48:00,73.6,47.1,29.62,NNW,338,3.6,3.6,39,0.00,CLR,,0.00,WeatherDisplay:10.37,2013-07-23 00:48:00,
2013-07-23 03:49:00,73.6,47.1,29.62,NNW,338,3.5,3.5,39,0.00,CLR,,0.00,WeatherDisplay:10.37,2013-07-23 00:49:00,
2013-07-23 03:50:00,73.6,47.1,29.62,NNW,338,3.5,3.5,39,0.00,CLR,,0.00,WeatherDisplay:10.37,2013-07-23 00:50:00,
2013-07-23 03:51:00,73.4,46.9,29.62,NW,315,3.5,3.5,39,0.00,CLR,,0.00,WeatherDisplay:10.37,2013-07-23 00:51:00,
2013-07-23 03:52:00,73.6,47.1,29.62,NNW,338,6.0,6.0,39,0.00,CLR,,0.00,WeatherDisplay:10.37,2013-07-23 00:52:00,
2013-07-23 03:54:00,73.6,47.1,29.62,NNW,338,2.3,2.3,39,0.00,CLR,,0.00,WeatherDisplay:10.37,2013-07-23 00:54:00,
2013-07-23 03:55:00,73.6,47.1,29.62,NW,315,2.6,2.6,39,0.00,CLR,,0.00,WeatherDisplay:10.37,2013-07-23 00:55:00,
2013-07-23 03:57:00,73.6,47.1,29.62,NW,315,4.6,4.6,39,0.00,CLR,,0.00,WeatherDisplay:10.37,2013-07-23 00:57:00,
2013-07-23 03:59:00,73.6,47.1,29.62,NNW,338,2.4,2.6,39,0.00,CLR,,0.00,WeatherDisplay:10.37,2013-07-23 00:59:00,
2013-07-23 04:00:00,73.6,47.1,29.62,WNW,292,2.4,2.4,39,0.00,CLR,,0.00,WeatherDisplay:10.37,2013-07-23 01:00:00,
2013-07-23 04:02:00,73.6,47.1,29.62,NW,315,4.6,4.6,39,0.00,CLR,,0.00,WeatherDisplay:10.37,2013-07-23 01:02:00,
2013-07-23 04:03:00,73.6,47.1,29.62,WNW,292,5.8,5.8,39,0.00,CLR,,0.00,WeatherDisplay:10.37,2013-07-23 01:03:00,
2013-07-23 04:04:00,73.6,47.1,29.62,WNW,292,3.5,3.5,39,0.00,CLR,,0.00,WeatherDisplay:10.37,2013-07-23 01:04:00,
2013-07-23 04:05:00,73.6,47.1,29.62,WNW,292,4.6,4.6,39,0.00,CLR,,0.00,WeatherDisplay:10.37,2013-07-23 01:05:00,
2013-07-23 04:06:00,73.6,47.1,29.62,NNW,338,3.5,3.5,39,0.00,CLR,,0.00,WeatherDisplay:10.37,2013-07-23 01:06:00,
2013-07-23 04:07:00,73.6,47.1,29.62,West,270,6.9,6.9,39,0.00,CLR,,0.00,WeatherDisplay:10.37,2013-07-23 01:07:00,
2013-07-23 04:08:00,73.6,47.1,29.62,North,0,3.6,3.6,39,0.00,CLR,,0.00,WeatherDisplay:10.37,2013-07-23 01:08:00,
2013-07-23 04:09:00,73.6,47.1,29.62,NW,315,4.6,4.6,39,0.00,CLR,,0.00,WeatherDisplay:10.37,2013-07-23 01:09:00,
2013-07-23 04:10:00,73.6,47.1,29.62,NW,315,4.6,4.6,39,0.00,CLR,,0.00,WeatherDisplay:10.37,2013-07-23 01:10:00,
2013-07-23 04:11:00,73.6,47.1,29.62,NNW,338,6.2,6.2,39,0.00,CLR,,0.00,WeatherDisplay:10.37,2013-07-23 01:11:00,
2013-07-23 04:12:00,73.6,47.1,29.62,WNW,292,8.1,8.1,39,0.00,CLR,,0.00,WeatherDisplay:10.37,2013-07-23 01:12:00,
2013-07-23 04:13:00,73.8,47.3,29.62,NNW,338,6.9,6.9,39,0.00,CLR,,0.00,WeatherDisplay:10.37,2013-07-23 01:13:00,
2013-07-23 04:14:00,73.8,47.3,29.62,NNW,338,6.9,6.9,39,0.00,CLR,,0.00,WeatherDisplay:10.37,2013-07-23 01:14:00,
2013-07-23 04:15:00,73.8,47.3,29.62,WNW,292,6.9,6.9,39,0.00,CLR,,0.00,WeatherDisplay:10.37,2013-07-23 01:15:00,
2013-07-23 04:16:00,73.8,47.3,29.62,NW,315,6.9,6.9,39,0.00,CLR,,0.00,WeatherDisplay:10.37,2013-07-23 01:16:00,
2013-07-23 04:17:00,73.8,47.3,29.62,NNW,338,6.0,6.0,39,0.00,CLR,,0.00,WeatherDisplay:10.37,2013-07-23 01:17:00,
2013-07-23 04:19:00,73.9,47.4,29.62,NNW,338,10.4,10.4,39,0.00,CLR,,0.00,WeatherDisplay:10.37,2013-07-23 01:19:00,
2013-07-23 04:20:00,73.9,47.4,29.62,WNW,292,5.8,5.8,39,0.00,CLR,,0.00,WeatherDisplay:10.37,2013-07-23 01:20:00,
2013-07-23 04:21:00,73.9,47.4,29.62,WNW,292,6.0,6.0,39,0.00,CLR,,0.00,WeatherDisplay:10.37,2013-07-23 01:21:00,
2013-07-23 04:22:00,73.9,47.4,29.62,WNW,292,5.8,5.8,39,0.00,CLR,,0.00,WeatherDisplay:10.37,2013-07-23 01:22:00,
2013-07-23 04:24:00,73.9,47.4,29.62,NNW,338,5.8,5.8,39,0.00,CLR,,0.00,WeatherDisplay:10.37,2013-07-23 01:24:00,
2013-07-23 04:25:00,73.9,47.4,29.62,NNW,338,5.8,5.8,39,0.00,CLR,,0.00,WeatherDisplay:10.37,2013-07-23 01:25:00,
2013-07-23 04:26:00,73.9,47.4,29.62,NNW,338,5.8,5.8,39,0.00,CLR,,0.00,WeatherDisplay:10.37,2013-07-23 01:26:00,
2013-07-23 04:27:00,73.9,47.4,29.62,NNW,338,5.8,5.8,39,0.00,CLR,,0.00,WeatherDisplay:10.37,2013-07-23 01:27:00,
2013-07-23 04:29:00,73.9,47.4,29.62,WNW,292,5.8,5.8,39,0.00,CLR,,0.00,WeatherDisplay:10.37,2013-07-23 01:29:00,
2013-07-23 04:30:00,73.9,47.4,29.62,WNW,292,5.8,5.8,39,0.00,CLR,,0.00,WeatherDisplay:10.37,2013-07-23 01:30:00,
2013-07-23 04:31:00,73.8,46.6,29.62,WNW,292,3.5,3.5,38,0.00,CLR,,0.00,WeatherDisplay:10.37,2013-07-23 01:31:00,
2013-07-23 04:32:00,73.8,47.3,29.62,NW,315,4.9,4.9,39,0.00,CLR,,0.00,WeatherDisplay:10.37,2013-07-23 01:32:00,
2013-07-23 04:34:00,73.8,46.6,29.62,NNW,338,4.6,4.6,38,0.00,CLR,,0.00,WeatherDisplay:10.37,2013-07-23 01:34:00,
2013-07-23 04:35:00,73.8,47.3,29.62,NNW,338,5.6,5.6,39,0.00,CLR,,0.00,WeatherDisplay:10.37,2013-07-23 01:35:00,
2013-07-23 04:36:00,73.8,47.3,29.62,NNW,338,5.8,5.8,39,0.00,CLR,,0.00,WeatherDisplay:10.37,2013-07-23 01:36:00,
2013-07-23 04:38:00,73.8,47.3,29.62,NW,315,6.0,6.0,39,0.00,CLR,,0.00,WeatherDisplay:10.37,2013-07-23 01:38:00,
2013-07-23 04:39:00,73.8,47.3,29.62,West,270,5.8,5.8,39,0.00,CLR,,0.00,WeatherDisplay:10.37,2013-07-23 01:39:00,
2013-07-23 04:40:00,73.8,47.3,29.62,WNW,292,8.1,8.1,39,0.00,CLR,,0.00,WeatherDisplay:10.37,2013-07-23 01:40:00,
2013-07-23 04:41:00,73.8,47.3,29.62,WNW,292,8.1,8.1,39,0.00,CLR,,0.00,WeatherDisplay:10.37,2013-07-23 01:41:00,
2013-07-23 04:42:00,73.9,46.7,29.62,WNW,292,8.1,8.1,38,0.00,CLR,,0.00,WeatherDisplay:10.37,2013-07-23 01:42:00,
2013-07-23 04:43:00,73.9,46.7,29.62,WNW,292,5.8,5.8,38,0.00,CLR,,0.00,WeatherDisplay:10.37,2013-07-23 01:43:00,
2013-07-23 04:45:00,73.9,46.7,29.62,NNW,338,6.9,6.9,38,0.00,CLR,,0.00,WeatherDisplay:10.37,2013-07-23 01:45:00,
2013-07-23 04:46:00,73.8,46.6,29.62,NNW,338,5.8,5.8,38,0.00,CLR,,0.00,WeatherDisplay:10.37,2013-07-23 01:46:00,
2013-07-23 04:47:00,73.8,46.6,29.62,West,270,5.9,5.9,38,0.00,CLR,,0.00,WeatherDisplay:10.37,2013-07-23 01:47:00,
2013-07-23 04:48:00,73.8,47.3,29.62,WNW,292,5.8,5.8,39,0.00,CLR,,0.00,WeatherDisplay:10.37,2013-07-23 01:48:00,
2013-07-23 04:50:00,73.8,47.3,29.62,NW,315,4.6,4.6,39,0.00,CLR,,0.00,WeatherDisplay:10.37,2013-07-23 01:50:00,
2013-07-23 04:51:00,73.8,47.3,29.62,NNW,338,5.6,5.6,39,0.00,CLR,,0.00,WeatherDisplay:10.37,2013-07-23 01:51:00,
2013-07-23 04:52:00,73.8,47.3,29.62,NNW,338,8.1,8.1,39,0.00,CLR,,0.00,WeatherDisplay:10.37,2013-07-23 01:52:00,
2013-07-23 04:53:00,73.8,47.3,29.62,NNW,338,4.6,4.6,39,0.00,CLR,,0.00,WeatherDisplay:10.37,2013-07-23 01:53:00,
2013-07-23 04:55:00,73.6,47.1,29.62,WNW,292,5.8,5.8,39,0.00,CLR,,0.00,WeatherDisplay:10.37,2013-07-23 01:55:00,
2013-07-23 04:57:00,73.6,47.1,29.62,NW,315,5.8,5.8,39,0.00,CLR,,0.00,WeatherDisplay:10.37,2013-07-23 01:57:00,
2013-07-23 04:58:00,73.6,47.1,29.62,West,270,4.7,4.7,39,0.00,CLR,,0.00,WeatherDisplay:10.37,2013-07-23 01:58:00,
2013-07-23 05:00:00,73.6,47.1,29.62,NNW,338,5.8,5.8,39,0.00,CLR,,0.00,WeatherDisplay:10.37,2013-07-23 02:00:00,
2013-07-23 05:01:00,73.6,47.1,29.62,North,0,5.8,5.8,39,0.00,CLR,,0.00,WeatherDisplay:10.37,2013-07-23 02:01:00,
2013-07-23 05:02:00,73.6,47.1,29.62,NW,315,4.6,4.6,39,0.00,CLR,,0.00,WeatherDisplay:10.37,2013-07-23 02:02:00,
2013-07-23 05:03:00,73.4,46.9,29.62,NNW,338,3.5,3.5,39,0.00,CLR,,0.00,WeatherDisplay:10.37,2013-07-23 02:03:00,
2013-07-23 05:05:00,73.4,46.9,29.62,NNW,338,5.8,5.8,39,0.00,CLR,,0.00,WeatherDisplay:10.37,2013-07-23 02:05:00,
2013-07-23 05:06:00,73.4,46.9,29.62,NNW,338,5.8,5.8,39,0.00,CLR,,0.00,WeatherDisplay:10.37,2013-07-23 02:06:00,
2013-07-23 05:07:00,73.4,46.9,29.62,NNW,338,4.6,4.6,39,0.00,CLR,,0.00,WeatherDisplay:10.37,2013-07-23 02:07:00,
2013-07-23 05:08:00,73.4,46.9,29.62,NNW,338,4.6,4.6,39,0.00,CLR,,0.00,WeatherDisplay:10.37,2013-07-23 02:08:00,
2013-07-23 05:11:00,73.4,46.9,29.62,WNW,292,2.3,2.3,39,0.00,CLR,,0.00,WeatherDisplay:10.37,2013-07-23 02:11:00,
2013-07-23 05:13:00,73.2,47.4,29.62,NNW,338,3.5,3.5,40,0.00,CLR,,0.00,WeatherDisplay:10.37,2013-07-23 02:13:00,
2013-07-23 05:14:00,73.2,47.4,29.62,NNW,338,2.3,2.3,40,0.00,CLR,,0.00,WeatherDisplay:10.37,2013-07-23 02:14:00,
2013-07-23 05:16:00,73.2,47.4,29.62,NNE,22,3.5,3.5,40,0.00,CLR,,0.00,WeatherDisplay:10.37,2013-07-23 02:16:00,
2013-07-23 05:18:00,73.2,47.4,29.62,NNE,22,2.3,2.3,40,0.00,CLR,,0.00,WeatherDisplay:10.37,2013-07-23 02:18:00,
2013-07-23 05:19:00,73.2,47.4,29.62,NNE,22,0.0,0.0,40,0.00,CLR,,0.00,WeatherDisplay:10.37,2013-07-23 02:19:00,
2013-07-23 05:21:00,73.0,47.3,29.62,NNW,338,1.6,1.6,40,0.00,CLR,,0.00,WeatherDisplay:10.37,2013-07-23 02:21:00,
2013-07-23 05:23:00,72.9,47.1,29.62,NNW,338,3.3,3.3,40,0.00,CLR,,0.00,WeatherDisplay:10.37,2013-07-23 02:23:00,
2013-07-23 05:24:00,72.9,47.1,29.62,NNW,338,3.5,3.5,40,0.00,CLR,,0.00,WeatherDisplay:10.37,2013-07-23 02:24:00,
2013-07-23 05:26:00,72.9,47.1,29.62,North,0,2.4,2.4,40,0.00,CLR,,0.00,WeatherDisplay:10.37,2013-07-23 02:26:00,
2013-07-23 05:28:00,72.9,47.1,29.62,NNW,338,4.0,4.0,40,0.00,CLR,,0.00,WeatherDisplay:10.37,2013-07-23 02:28:00,
2013-07-23 05:30:00,73.0,47.9,29.62,NNW,338,4.9,4.9,41,0.00,CLR,,0.00,WeatherDisplay:10.37,2013-07-23 02:30:00,
2013-07-23 05:31:00,73.0,47.3,29.62,NNW,338,5.8,5.8,40,0.00,CLR,,0.00,WeatherDisplay:10.37,2013-07-23 02:31:00,
2013-07-23 05:32:00,73.0,47.3,29.62,NNW,338,5.8,5.8,40,0.00,CLR,,0.00,WeatherDisplay:10.37,2013-07-23 02:32:00,
2013-07-23 05:33:00,73.2,48.1,29.62,NW,315,5.8,5.8,41,0.00,CLR,,0.00,WeatherDisplay:10.37,2013-07-23 02:33:00,
2013-07-23 05:35:00,73.2,48.1,29.62,NW,315,5.8,5.8,41,0.00,CLR,,0.00,WeatherDisplay:10.37,2013-07-23 02:35:00,
2013-07-23 05:36:00,73.2,47.4,29.62,North,0,4.6,4.6,40,0.00,CLR,,0.00,WeatherDisplay:10.37,2013-07-23 02:36:00,
2013-07-23 05:37:00,73.2,47.4,29.62,NNE,22,2.3,2.6,40,0.00,CLR,,0.00,WeatherDisplay:10.37,2013-07-23 02:37:00,
2013-07-23 05:38:00,73.2,47.4,29.62,NNW,338,6.9,6.9,40,0.00,CLR,,0.00,WeatherDisplay:10.37,2013-07-23 02:38:00,
2013-07-23 05:40:00,73.3,47.5,29.62,NNW,340,6.0,9.0,40,0.00,CLR,,0.00,WeatherDisplay:10.37,2013-07-23 02:40:00,
2013-07-23 05:42:00,73.6,47.8,29.62,NNW,338,9.2,9.2,40,0.00,CLR,,0.00,WeatherDisplay:10.37,2013-07-23 02:42:00,
2013-07-23 05:43:00,73.6,47.8,29.62,NNW,338,10.4,10.4,40,0.00,CLR,,0.00,WeatherDisplay:10.37,2013-07-23 02:43:00,
2013-07-23 05:44:00,73.6,47.8,29.62,North,0,9.2,9.2,40,0.00,CLR,,0.00,WeatherDisplay:10.37,2013-07-23 02:44:00,
2013-07-23 05:45:00,73.6,47.8,29.62,North,0,5.8,5.8,40,0.00,CLR,,0.00,WeatherDisplay:10.37,2013-07-23 02:45:00,
2013-07-23 05:47:00,73.6,47.1,29.62,NNE,22,11.5,11.5,39,0.00,CLR,,0.00,WeatherDisplay:10.37,2013-07-23 02:47:00,
2013-07-23 05:48:00,73.8,47.3,29.62,NNW,338,9.2,9.2,39,0.00,CLR,,0.00,WeatherDisplay:10.37,2013-07-23 02:48:00,
2013-07-23 05:49:00,73.8,47.3,29.62,WNW,292,8.1,8.1,39,0.00,CLR,,0.00,WeatherDisplay:10.37,2013-07-23 02:49:00,
2013-07-23 05:50:00,73.8,47.3,29.62,NNE,22,5.8,5.8,39,0.00,CLR,,0.00,WeatherDisplay:10.37,2013-07-23 02:50:00,
2013-07-23 05:52:00,73.8,47.3,29.62,North,0,8.1,8.1,39,0.00,CLR,,0.00,WeatherDisplay:10.37,2013-07-23 02:52:00,
2013-07-23 05:53:00,73.9,47.4,29.62,North,0,10.4,10.4,39,0.00,CLR,,0.00,WeatherDisplay:10.37,2013-07-23 02:53:00,
2013-07-23 05:55:00,73.9,47.4,29.62,NNW,338,6.9,6.9,39,0.00,CLR,,0.00,WeatherDisplay:10.37,2013-07-23 02:55:00,
2013-07-23 05:57:00,73.9,47.4,29.62,NNE,22,9.2,9.2,39,0.00,CLR,,0.00,WeatherDisplay:10.37,2013-07-23 02:57:00,
2013-07-23 05:59:00,73.9,47.4,29.62,North,0,6.9,6.9,39,0.00,CLR,,0.00,WeatherDisplay:10.37,2013-07-23 02:59:00,
2013-07-23 06:00:00,73.9,47.4,29.62,NNW,345,6.0,9.0,39,0.00,CLR,,0.00,WeatherDisplay:10.37,2013-07-23 03:00:00,
2013-07-23 06:02:00,73.9,47.4,29.62,NNW,338,8.1,8.1,39,0.00,CLR,,0.00,WeatherDisplay:10.37,2013-07-23 03:02:00,
2013-07-23 06:04:00,73.9,47.4,29.62,NNW,338,9.2,9.2,39,0.00,CLR,,0.00,WeatherDisplay:10.37,2013-07-23 03:04:00,
2013-07-23 06:05:00,73.9,47.4,29.62,NNW,336,5.0,10.0,39,0.00,CLR,,0.00,WeatherDisplay:10.37,2013-07-23 03:05:00,
2013-07-23 06:06:00,73.9,47.4,29.62,North,0,8.1,8.1,39,0.00,CLR,,0.00,WeatherDisplay:10.37,2013-07-23 03:06:00,
2013-07-23 06:08:00,73.8,47.3,29.62,NNW,338,5.8,5.8,39,0.00,CLR,,0.00,WeatherDisplay:10.37,2013-07-23 03:08:00,
2013-07-23 06:10:00,73.8,47.3,29.62,NNW,338,1.2,2.0,39,0.00,CLR,,0.00,WeatherDisplay:10.37,2013-07-23 03:10:00,
2013-07-23 06:11:00,73.8,47.3,29.62,NNW,338,6.9,6.9,39,0.00,CLR,,0.00,WeatherDisplay:10.37,2013-07-23 03:11:00,
2013-07-23 06:13:00,73.6,47.1,29.62,NW,315,3.5,3.5,39,0.00,CLR,,0.00,WeatherDisplay:10.37,2013-07-23 03:13:00,
2013-07-23 06:15:00,73.6,47.8,29.62,NNW,338,3.5,3.5,40,0.00,CLR,,0.00,WeatherDisplay:10.37,2013-07-23 03:15:00,
2013-07-23 06:16:00,73.6,47.8,29.62,WNW,292,4.6,4.6,40,0.00,CLR,,0.00,WeatherDisplay:10.37,2013-07-23 03:16:00,
2013-07-23 06:18:00,73.4,47.6,29.62,WNW,292,2.3,2.3,40,0.00,CLR,,0.00,WeatherDisplay:10.37,2013-07-23 03:18:00,
2013-07-23 06:20:00,73.4,48.3,29.62,NW,315,4.6,4.6,41,0.00,CLR,,0.00,WeatherDisplay:10.37,2013-07-23 03:20:00,
2013-07-23 06:21:00,73.2,48.1,29.62,NNW,338,3.5,3.5,41,0.00,CLR,,0.00,WeatherDisplay:10.37,2013-07-23 03:21:00,
2013-07-23 06:23:00,73.2,48.1,29.62,NW,315,4.6,4.6,41,0.00,CLR,,0.00,WeatherDisplay:10.37,2013-07-23 03:23:00,
2013-07-23 06:25:00,73.2,48.7,29.62,NW,315,5.8,5.8,42,0.00,CLR,,0.00,WeatherDisplay:10.37,2013-07-23 03:25:00,
2013-07-23 06:26:00,73.0,48.6,29.62,NNW,338,2.6,2.6,42,0.00,CLR,,0.00,WeatherDisplay:10.37,2013-07-23 03:26:00,
2013-07-23 06:28:00,73.0,48.6,29.62,NNW,338,6.9,6.9,42,0.00,CLR,,0.00,WeatherDisplay:10.37,2013-07-23 03:28:00,
2013-07-23 06:30:00,73.0,48.6,29.62,NNW,338,3.5,3.5,42,0.00,CLR,,0.00,WeatherDisplay:10.37,2013-07-23 03:30:00,
2013-07-23 06:31:00,73.0,48.6,29.62,WNW,292,4.0,4.0,42,0.00,CLR,,0.00,WeatherDisplay:10.37,2013-07-23 03:31:00,
2013-07-23 06:33:00,73.0,48.6,29.62,NW,315,4.6,4.6,42,0.00,CLR,,0.00,WeatherDisplay:10.37,2013-07-23 03:33:00,
2013-07-23 06:35:00,73.0,48.6,29.62,NNW,338,6.9,6.9,42,0.00,CLR,,0.00,WeatherDisplay:10.37,2013-07-23 03:35:00,
2013-07-23 06:36:00,73.0,48.6,29.62,WNW,292,6.9,6.9,42,0.00,CLR,,0.00,WeatherDisplay:10.37,2013-07-23 03:36:00,
2013-07-23 06:39:00,73.2,48.7,29.62,NNW,338,4.6,4.6,42,0.00,CLR,,0.00,WeatherDisplay:10.37,2013-07-23 03:39:00,
2013-07-23 06:40:00,73.2,48.7,29.62,NNW,338,3.6,3.6,42,0.00,CLR,,0.00,WeatherDisplay:10.37,2013-07-23 03:40:00,
2013-07-23 06:41:00,73.2,48.7,29.62,NNW,338,5.8,5.8,42,0.00,CLR,,0.00,WeatherDisplay:10.37,2013-07-23 03:41:00,
2013-07-23 06:44:00,73.2,48.7,29.62,NNW,338,8.1,8.1,42,0.00,CLR,,0.00,WeatherDisplay:10.37,2013-07-23 03:44:00,
2013-07-23 06:45:00,73.4,48.9,29.62,NNW,338,4.0,4.0,42,0.00,CLR,,0.00,WeatherDisplay:10.37,2013-07-23 03:45:00,
2013-07-23 06:46:00,73.4,48.9,29.62,NNW,338,4.6,4.6,42,0.00,CLR,,0.00,WeatherDisplay:10.37,2013-07-23 03:46:00,
2013-07-23 06:49:00,73.4,48.9,29.62,NNW,338,5.8,5.8,42,0.00,CLR,,0.00,WeatherDisplay:10.37,2013-07-23 03:49:00,
2013-07-23 06:50:00,73.4,48.9,29.62,NNW,338,5.4,5.4,42,0.00,CLR,,0.00,WeatherDisplay:10.37,2013-07-23 03:50:00,
2013-07-23 06:51:00,73.4,48.9,29.62,NNW,338,5.8,5.8,42,0.00,CLR,,0.00,WeatherDisplay:10.37,2013-07-23 03:51:00,
2013-07-23 06:52:00,73.6,49.1,29.62,NNW,338,6.2,6.2,42,0.00,CLR,,0.00,WeatherDisplay:10.37,2013-07-23 03:52:00,
2013-07-23 06:54:00,73.6,49.1,29.62,NNW,338,5.8,5.8,42,0.00,CLR,,0.00,WeatherDisplay:10.37,2013-07-23 03:54:00,
2013-07-23 06:55:00,73.6,49.1,29.62,NNW,338,3.5,3.5,42,0.00,CLR,,0.00,WeatherDisplay:10.37,2013-07-23 03:55:00,
2013-07-23 06:56:00,73.6,49.1,29.62,North,0,5.4,5.4,42,0.00,CLR,,0.00,WeatherDisplay:10.37,2013-07-23 03:56:00,
2013-07-23 06:57:00,73.6,49.1,29.62,NNW,338,4.6,4.6,42,0.00,CLR,,0.00,WeatherDisplay:10.37,2013-07-23 03:57:00,
2013-07-23 06:59:00,73.6,49.1,29.62,NNW,338,3.5,3.5,42,0.00,CLR,,0.00,WeatherDisplay:10.37,2013-07-23 03:59:00,
2013-07-23 07:01:00,73.6,49.1,29.62,North,0,2.3,2.3,42,0.00,CLR,,0.00,WeatherDisplay:10.37,2013-07-23 04:01:00,
2013-07-23 07:03:00,73.6,49.1,29.62,NNW,338,2.3,2.3,42,0.00,CLR,,0.00,WeatherDisplay:10.37,2013-07-23 04:03:00,
2013-07-23 07:06:00,73.6,49.1,29.62,NNW,338,2.3,3.6,42,0.00,CLR,,0.00,WeatherDisplay:10.37,2013-07-23 04:06:00,
2013-07-23 07:07:00,73.6,49.1,29.62,NNW,338,2.3,2.3,42,0.00,CLR,,0.00,WeatherDisplay:10.37,2013-07-23 04:07:00,
2013-07-23 07:08:00,73.6,49.1,29.62,WNW,292,3.5,3.5,42,0.00,CLR,,0.00,WeatherDisplay:10.37,2013-07-23 04:08:00,
2013-07-23 07:11:00,73.6,49.1,29.62,WNW,292,3.5,3.5,42,0.00,CLR,,0.00,WeatherDisplay:10.37,2013-07-23 04:11:00,
2013-07-23 07:12:00,74.1,49.6,29.62,NW,315,2.9,2.9,42,0.00,CLR,,0.00,WeatherDisplay:10.37,2013-07-23 04:12:00,
2013-07-23 07:13:00,74.3,49.7,29.62,NW,315,5.8,5.8,42,0.00,CLR,,0.00,WeatherDisplay:10.37,2013-07-23 04:13:00,
2013-07-23 07:16:00,74.8,50.2,29.62,North,0,3.5,3.5,42,0.00,CLR,,0.00,WeatherDisplay:10.37,2013-07-23 04:16:00,
2013-07-23 07:17:00,75.0,50.4,29.62,NNW,338,4.6,4.6,42,0.00,CLR,,0.00,WeatherDisplay:10.37,2013-07-23 04:17:00,
2013-07-23 07:19:00,75.4,49.4,29.62,NNW,338,5.6,5.6,40,0.00,CLR,,0.00,WeatherDisplay:10.37,2013-07-23 04:19:00,
2013-07-23 07:21:00,75.7,49.7,29.62,NNW,338,4.6,4.6,40,0.00,CLR,,0.00,WeatherDisplay:10.37,2013-07-23 04:21:00,
2013-07-23 07:22:00,75.7,49.7,29.62,NNW,338,2.6,2.6,40,0.00,CLR,,0.00,WeatherDisplay:10.37,2013-07-23 04:22:00,
2013-07-23 07:24:00,76.1,49.3,29.62,NNW,338,4.7,4.7,39,0.00,CLR,,0.00,WeatherDisplay:10.37,2013-07-23 04:24:00,
2013-07-23 07:26:00,76.3,49.5,29.62,NNW,338,3.5,3.5,39,0.00,CLR,,0.00,WeatherDisplay:10.37,2013-07-23 04:26:00,
2013-07-23 07:27:00,76.5,49.0,29.62,NNE,22,4.9,4.9,38,0.00,CLR,,0.00,WeatherDisplay:10.37,2013-07-23 04:27:00,
2013-07-23 07:29:00,76.5,49.0,29.62,NNW,338,5.8,5.8,38,0.00,CLR,,0.00,WeatherDisplay:10.37,2013-07-23 04:29:00,
2013-07-23 07:31:00,76.8,49.3,29.62,NNW,338,3.1,3.1,38,0.00,CLR,,0.00,WeatherDisplay:10.37,2013-07-23 04:31:00,
2013-07-23 07:32:00,77.0,48.7,29.62,NNW,338,3.5,3.5,37,0.00,CLR,,0.00,WeatherDisplay:10.37,2013-07-23 04:32:00,
2013-07-23 07:33:00,77.0,48.7,29.62,NNW,338,4.9,4.9,37,0.00,CLR,,0.00,WeatherDisplay:10.37,2013-07-23 04:33:00,
2013-07-23 07:34:00,77.2,48.9,29.62,North,0,5.8,5.8,37,0.00,CLR,,0.00,WeatherDisplay:10.37,2013-07-23 04:34:00,
2013-07-23 07:36:00,77.5,49.2,29.62,NNW,338,4.6,4.6,37,0.00,CLR,,0.00,WeatherDisplay:10.37,2013-07-23 04:36:00,
2013-07-23 07:37:00,77.5,49.2,29.62,NNW,338,4.6,4.6,37,0.00,CLR,,0.00,WeatherDisplay:10.37,2013-07-23 04:37:00,
2013-07-23 07:38:00,77.5,48.5,29.62,NNW,338,5.8,5.8,36,0.00,CLR,,0.00,WeatherDisplay:10.37,2013-07-23 04:38:00,
2013-07-23 07:39:00,77.5,48.5,29.62,NNW,338,5.8,5.8,36,0.00,CLR,,0.00,WeatherDisplay:10.37,2013-07-23 04:39:00,
2013-07-23 07:42:00,77.9,48.8,29.62,NNW,338,3.5,3.5,36,0.00,CLR,,0.00,WeatherDisplay:10.37,2013-07-23 04:42:00,
2013-07-23 07:43:00,78.1,48.9,29.62,NNE,22,5.9,5.9,36,0.00,CLR,,0.00,WeatherDisplay:10.37,2013-07-23 04:43:00,
2013-07-23 07:45:00,78.1,48.9,29.62,NNW,338,5.8,5.8,36,0.00,CLR,,0.00,WeatherDisplay:10.37,2013-07-23 04:45:00,
2013-07-23 07:47:00,78.1,48.9,29.62,NNW,338,6.0,6.0,36,0.00,CLR,,0.00,WeatherDisplay:10.37,2013-07-23 04:47:00,
2013-07-23 07:49:00,78.1,48.9,29.62,NW,315,6.9,6.9,36,0.00,CLR,,0.00,WeatherDisplay:10.37,2013-07-23 04:49:00,
2013-07-23 07:50:00,78.1,48.9,29.62,North,0,5.8,5.8,36,0.00,CLR,,0.00,WeatherDisplay:10.37,2013-07-23 04:50:00,
2013-07-23 07:52:00,78.4,49.3,29.62,NNW,338,4.6,4.6,36,0.00,CLR,,0.00,WeatherDisplay:10.37,2013-07-23 04:52:00,
2013-07-23 07:53:00,78.6,49.4,29.62,NNW,338,4.6,4.6,36,0.00,CLR,,0.00,WeatherDisplay:10.37,2013-07-23 04:53:00,
2013-07-23 07:54:00,78.6,49.4,29.62,NNE,22,5.8,5.8,36,0.00,CLR,,0.00,WeatherDisplay:10.37,2013-07-23 04:54:00,
2013-07-23 07:55:00,78.6,49.4,29.62,NNW,332,3.0,6.0,36,0.00,CLR,,0.00,WeatherDisplay:10.37,2013-07-23 04:55:00,
2013-07-23 07:57:00,78.8,48.8,29.62,NNW,338,5.8,5.8,35,0.00,CLR,,0.00,WeatherDisplay:10.37,2013-07-23 04:57:00,
2013-07-23 07:58:00,78.6,48.7,29.62,NNW,338,5.8,5.8,35,0.00,CLR,,0.00,WeatherDisplay:10.37,2013-07-23 04:58:00,
2013-07-23 07:59:00,78.8,48.8,29.62,NNW,338,4.3,4.3,35,0.00,CLR,,0.00,WeatherDisplay:10.37,2013-07-23 04:59:00,
2013-07-23 08:00:00,79.0,49.0,29.62,NNW,338,3.5,3.5,35,0.00,CLR,,0.00,WeatherDisplay:10.37,2013-07-23 05:00:00,
2013-07-23 08:02:00,79.3,49.3,29.62,NW,315,4.6,4.6,35,0.00,CLR,,0.00,WeatherDisplay:10.37,2013-07-23 05:02:00,
2013-07-23 08:03:00,79.3,49.3,29.62,NNE,22,2.3,2.3,35,0.00,CLR,,0.00,WeatherDisplay:10.37,2013-07-23 05:03:00,
2013-07-23 08:04:00,79.5,49.5,29.62,NW,315,4.6,4.6,35,0.00,CLR,,0.00,WeatherDisplay:10.37,2013-07-23 05:04:00,
2013-07-23 08:05:00,79.7,49.6,29.62,NW,315,4.6,4.6,35,0.00,CLR,,0.00,WeatherDisplay:10.37,2013-07-23 05:05:00,
2013-07-23 08:07:00,79.7,48.8,29.62,NNE,22,5.8,5.8,34,0.00,CLR,,0.00,WeatherDisplay:10.37,2013-07-23 05:07:00,
2013-07-23 08:08:00,79.7,48.8,29.62,North,0,5.8,5.8,34,0.00,CLR,,0.00,WeatherDisplay:10.37,2013-07-23 05:08:00,
2013-07-23 08:10:00,79.7,48.8,29.62,WNW,292,4.9,4.9,34,0.00,CLR,,0.00,WeatherDisplay:10.37,2013-07-23 05:10:00,
2013-07-23 08:13:00,79.9,49.8,29.62,NNW,338,3.5,3.5,35,0.00,CLR,,0.00,WeatherDisplay:10.37,2013-07-23 05:13:00,
2013-07-23 08:14:00,79.9,49.0,29.62,NNW,338,5.8,5.8,34,0.00,CLR,,0.00,WeatherDisplay:10.37,2013-07-23 05:14:00,
2013-07-23 08:15:00,79.9,49.0,29.62,NNE,22,5.8,5.8,34,0.00,CLR,,0.00,WeatherDisplay:10.37,2013-07-23 05:15:00,
2013-07-23 08:18:00,79.7,48.8,29.62,North,0,6.0,6.0,34,0.00,CLR,,0.00,WeatherDisplay:10.37,2013-07-23 05:18:00,
2013-07-23 08:19:00,79.7,48.8,29.62,NNW,338,6.0,6.0,34,0.00,CLR,,0.00,WeatherDisplay:10.37,2013-07-23 05:19:00,
2013-07-23 08:20:00,79.9,49.8,29.62,NNE,22,5.8,5.8,35,0.00,CLR,,0.00,WeatherDisplay:10.37,2013-07-23 05:20:00,
2013-07-23 08:23:00,80.2,50.1,29.62,NNW,338,5.4,5.4,35,0.00,CLR,,0.00,WeatherDisplay:10.37,2013-07-23 05:23:00,
2013-07-23 08:24:00,80.2,50.1,29.62,North,0,5.6,5.6,35,0.00,CLR,,0.00,WeatherDisplay:10.37,2013-07-23 05:24:00,
2013-07-23 08:25:00,80.4,50.3,29.62,NNE,22,5.8,5.8,35,0.00,CLR,,0.00,WeatherDisplay:10.37,2013-07-23 05:25:00,
2013-07-23 08:28:00,80.6,49.6,29.62,NNW,338,5.8,5.8,34,0.00,CLR,,0.00,WeatherDisplay:10.37,2013-07-23 05:28:00,
2013-07-23 08:29:00,80.6,49.6,29.62,NW,315,8.1,8.1,34,0.00,CLR,,0.00,WeatherDisplay:10.37,2013-07-23 05:29:00,
2013-07-23 08:30:00,80.8,49.8,29.62,North,0,9.7,9.7,34,0.00,CLR,,0.00,WeatherDisplay:10.37,2013-07-23 05:30:00,
2013-07-23 08:33:00,80.6,49.6,29.62,NNW,338,8.1,8.1,34,0.00,CLR,,0.00,WeatherDisplay:10.37,2013-07-23 05:33:00,
2013-07-23 08:34:00,80.6,49.6,29.62,NNW,338,6.9,6.9,34,0.00,CLR,,0.00,WeatherDisplay:10.37,2013-07-23 05:34:00,
2013-07-23 08:35:00,80.4,49.5,29.62,NNW,338,9.2,9.2,34,0.00,CLR,,0.00,WeatherDisplay:10.37,2013-07-23 05:35:00,
2013-07-23 08:36:00,80.4,50.3,29.62,ENE,68,9.2,9.2,35,0.00,CLR,,0.00,WeatherDisplay:10.37,2013-07-23 05:36:00,
2013-07-23 08:38:00,80.4,50.3,29.65,North,0,9.2,9.2,35,0.00,CLR,,0.00,WeatherDisplay:10.37,2013-07-23 05:38:00,
2013-07-23 08:39:00,80.4,50.3,29.65,NE,45,9.2,9.2,35,0.00,CLR,,0.00,WeatherDisplay:10.37,2013-07-23 05:39:00,
2013-07-23 08:40:00,80.8,49.8,29.65,North,0,6.2,6.2,34,0.00,CLR,,0.00,WeatherDisplay:10.37,2013-07-23 05:40:00,
2013-07-23 08:41:00,81.0,49.9,29.65,WNW,292,5.8,5.8,34,0.00,CLR,,0.00,WeatherDisplay:10.37,2013-07-23 05:41:00,
2013-07-23 08:43:00,81.0,49.9,29.65,North,0,8.1,8.1,34,0.00,CLR,,0.00,WeatherDisplay:10.37,2013-07-23 05:43:00,
2013-07-23 08:44:00,81.1,50.1,29.65,NNE,22,8.1,8.1,34,0.00,CLR,,0.00,WeatherDisplay:10.37,2013-07-23 05:44:00,
2013-07-23 08:46:00,81.1,50.1,29.65,NNW,338,8.1,8.1,34,0.00,CLR,,0.00,WeatherDisplay:10.37,2013-07-23 05:46:00,
2013-07-23 08:48:00,81.1,50.1,29.65,North,0,8.1,8.1,34,0.00,CLR,,0.00,WeatherDisplay:10.37,2013-07-23 05:48:00,
2013-07-23 08:49:00,80.6,49.6,29.65,NNW,338,9.2,9.2,34,0.00,CLR,,0.00,WeatherDisplay:10.37,2013-07-23 05:49:00,
2013-07-23 08:50:00,80.6,49.6,29.65,North,0,9.2,9.2,34,0.00,CLR,,0.00,WeatherDisplay:10.37,2013-07-23 05:50:00,
2013-07-23 08:51:00,80.8,49.8,29.65,North,0,8.1,8.1,34,0.00,CLR,,0.00,WeatherDisplay:10.37,2013-07-23 05:51:00,
2013-07-23 08:54:00,80.8,49.8,29.65,NNE,22,11.5,11.5,34,0.00,CLR,,0.00,WeatherDisplay:10.37,2013-07-23 05:54:00,
2013-07-23 08:55:00,80.6,49.6,29.65,North,0,11.5,11.5,34,0.00,CLR,,0.00,WeatherDisplay:10.37,2013-07-23 05:55:00,
2013-07-23 08:56:00,80.4,50.3,29.65,NNW,338,10.4,10.4,35,0.00,CLR,,0.00,WeatherDisplay:10.37,2013-07-23 05:56:00,
2013-07-23 08:59:00,81.0,50.7,29.65,NW,315,6.9,6.9,35,0.00,CLR,,0.00,WeatherDisplay:10.37,2013-07-23 05:59:00,
2013-07-23 09:00:00,81.0,50.7,29.65,NW,315,6.9,6.9,35,0.00,CLR,,0.00,WeatherDisplay:10.37,2013-07-23 06:00:00,
2013-07-23 09:01:00,81.3,50.3,29.65,NNW,338,6.9,6.9,34,0.00,CLR,,0.00,WeatherDisplay:10.37,2013-07-23 06:01:00,
2013-07-23 09:04:00,81.5,50.4,29.65,NNW,338,6.9,6.9,34,0.00,CLR,,0.00,WeatherDisplay:10.37,2013-07-23 06:04:00,
2013-07-23 09:05:00,81.7,50.6,29.65,North,0,8.7,8.7,34,0.00,CLR,,0.00,WeatherDisplay:10.37,2013-07-23 06:05:00,
2013-07-23 09:06:00,81.7,50.6,29.65,NNW,338,9.2,9.2,34,0.00,CLR,,0.00,WeatherDisplay:10.37,2013-07-23 06:06:00,
2013-07-23 09:07:00,81.5,49.6,29.65,WNW,292,9.2,9.2,33,0.00,CLR,,0.00,WeatherDisplay:10.37,2013-07-23 06:07:00,
2013-07-23 09:10:00,81.6,49.7,29.62,NNW,335,6.0,10.0,33,0.00,CLR,,0.00,WeatherDisplay:10.37,2013-07-23 06:10:00,
2013-07-23 09:11:00,82.0,50.1,29.62,NW,315,5.8,5.8,33,0.00,CLR,,0.00,WeatherDisplay:10.37,2013-07-23 06:11:00,
2013-07-23 09:12:00,82.0,50.1,29.62,NW,315,7.1,7.1,33,0.00,CLR,,0.00,WeatherDisplay:10.37,2013-07-23 06:12:00,
2013-07-23 09:15:00,82.4,49.6,29.62,NNE,22,5.8,5.9,32,0.00,CLR,,0.00,WeatherDisplay:10.37,2013-07-23 06:15:00,
2013-07-23 09:16:00,82.9,50.0,29.62,NNW,338,5.6,5.6,32,0.00,CLR,,0.00,WeatherDisplay:10.37,2013-07-23 06:16:00,
2013-07-23 09:17:00,82.9,50.0,29.62,NNW,338,5.8,5.8,32,0.00,CLR,,0.00,WeatherDisplay:10.37,2013-07-23 06:17:00,
2013-07-23 09:20:00,83.3,50.4,29.62,NNE,22,8.1,8.1,32,0.00,CLR,,0.00,WeatherDisplay:10.37,2013-07-23 06:20:00,
2013-07-23 09:22:00,83.3,50.4,29.62,NW,315,5.8,5.8,32,0.00,CLR,,0.00,WeatherDisplay:10.37,2013-07-23 06:22:00,
2013-07-23 09:25:00,82.9,50.0,29.62,NW,315,9.2,9.2,32,0.00,CLR,,0.00,WeatherDisplay:10.37,2013-07-23 06:25:00,
2013-07-23 09:26:00,82.8,49.9,29.62,North,0,9.2,9.2,32,0.00,CLR,,0.00,WeatherDisplay:10.37,2013-07-23 06:26:00,
2013-07-23 09:27:00,82.9,50.0,29.62,North,0,8.1,8.1,32,0.00,CLR,,0.00,WeatherDisplay:10.37,2013-07-23 06:27:00,
2013-07-23 09:28:00,82.9,50.0,29.62,NNW,338,8.1,8.1,32,0.00,CLR,,0.00,WeatherDisplay:10.37,2013-07-23 06:28:00,
2013-07-23 09:30:00,82.6,49.7,29.62,WNW,292,10.4,10.4,32,0.00,CLR,,0.00,WeatherDisplay:10.37,2013-07-23 06:30:00,
2013-07-23 09:31:00,82.6,49.7,29.62,NNW,338,8.1,8.1,32,0.00,CLR,,0.00,WeatherDisplay:10.37,2013-07-23 06:31:00,
2013-07-23 09:32:00,82.9,50.0,29.62,NNW,338,6.9,6.9,32,0.00,CLR,,0.00,WeatherDisplay:10.37,2013-07-23 06:32:00,
2013-07-23 09:33:00,82.9,50.0,29.62,NW,315,6.9,6.9,32,0.00,CLR,,0.00,WeatherDisplay:10.37,2013-07-23 06:33:00,
2013-07-23 09:35:00,82.9,50.0,29.62,NNW,338,8.1,8.1,32,0.00,CLR,,0.00,WeatherDisplay:10.37,2013-07-23 06:35:00,
2013-07-23 09:36:00,82.9,50.0,29.62,NNW,338,8.1,8.1,32,0.00,CLR,,0.00,WeatherDisplay:10.37,2013-07-23 06:36:00,
2013-07-23 09:38:00,83.1,50.2,29.62,NNW,338,6.9,6.9,32,0.00,CLR,,0.00,WeatherDisplay:10.37,2013-07-23 06:38:00,
2013-07-23 09:39:00,83.1,50.2,29.62,NNE,22,5.8,5.8,32,0.00,CLR,,0.00,WeatherDisplay:10.37,2013-07-23 06:39:00,
2013-07-23 09:40:00,83.8,50.8,29.62,NNE,22,5.8,5.8,32,0.00,CLR,,0.00,WeatherDisplay:10.37,2013-07-23 06:40:00,
2013-07-23 09:41:00,84.0,51.0,29.62,North,0,7.8,7.8,32,0.00,CLR,,0.00,WeatherDisplay:10.37,2013-07-23 06:41:00,
2013-07-23 09:43:00,84.0,51.0,29.62,NNW,338,8.1,8.1,32,0.00,CLR,,0.00,WeatherDisplay:10.37,2013-07-23 06:43:00,
2013-07-23 09:44:00,84.9,50.9,29.62,ENE,68,4.6,4.6,31,0.00,CLR,,0.00,WeatherDisplay:10.37,2013-07-23 06:44:00,
2013-07-23 09:46:00,85.3,51.2,29.62,NNW,338,3.8,3.8,31,0.00,CLR,,0.00,WeatherDisplay:10.37,2013-07-23 06:46:00,
2013-07-23 09:47:00,85.5,51.4,29.62,NNE,22,4.6,4.6,31,0.00,CLR,,0.00,WeatherDisplay:10.37,2013-07-23 06:47:00,
2013-07-23 09:48:00,85.3,51.2,29.62,NNW,338,6.9,6.9,31,0.00,CLR,,0.00,WeatherDisplay:10.37,2013-07-23 06:48:00,
2013-07-23 09:49:00,85.3,51.2,29.62,NNE,22,8.1,8.1,31,0.00,CLR,,0.00,WeatherDisplay:10.37,2013-07-23 06:49:00,
2013-07-23 09:51:00,84.4,49.6,29.62,NNW,338,10.4,10.4,30,0.00,CLR,,0.00,WeatherDisplay:10.37,2013-07-23 06:51:00,
2013-07-23 09:52:00,84.4,49.6,29.62,NNW,338,10.4,10.4,30,0.00,CLR,,0.00,WeatherDisplay:10.37,2013-07-23 06:52:00,
2013-07-23 09:53:00,84.7,49.9,29.62,WNW,292,6.9,6.9,30,0.00,CLR,,0.00,WeatherDisplay:10.37,2013-07-23 06:53:00,
2013-07-23 09:54:00,84.9,50.0,29.62,WNW,292,8.1,8.1,30,0.00,CLR,,0.00,WeatherDisplay:10.37,2013-07-23 06:54:00,
2013-07-23 09:56:00,84.4,49.6,29.62,NNW,338,10.4,10.4,30,0.00,CLR,,0.00,WeatherDisplay:10.37,2013-07-23 06:56:00,
2013-07-23 09:57:00,83.8,49.1,29.62,WNW,292,10.4,10.4,30,0.00,CLR,,0.00,WeatherDisplay:10.37,2013-07-23 06:57:00,
2013-07-23 09:58:00,84.2,49.4,29.62,NNW,338,10.4,10.4,30,0.00,CLR,,0.00,WeatherDisplay:10.37,2013-07-23 06:58:00,
2013-07-23 09:59:00,84.6,49.7,29.62,NNW,338,6.9,6.9,30,0.00,CLR,,0.00,WeatherDisplay:10.37,2013-07-23 06:59:00,
2013-07-23 10:01:00,84.9,50.0,29.62,NW,315,5.8,5.8,30,0.00,CLR,,0.00,WeatherDisplay:10.37,2013-07-23 07:01:00,
2013-07-23 10:02:00,85.3,50.3,29.62,NNW,338,4.6,5.6,30,0.00,CLR,,0.00,WeatherDisplay:10.37,2013-07-23 07:02:00,
2013-07-23 10:03:00,85.3,50.3,29.62,NNW,338,8.1,8.1,30,0.00,CLR,,0.00,WeatherDisplay:10.37,2013-07-23 07:03:00,
2013-07-23 10:04:00,85.3,50.3,29.62,NNW,338,5.8,5.8,30,0.00,CLR,,0.00,WeatherDisplay:10.37,2013-07-23 07:04:00,
2013-07-23 10:06:00,85.3,50.3,29.62,East,90,5.8,5.8,30,0.00,CLR,,0.00,WeatherDisplay:10.37,2013-07-23 07:06:00,
2013-07-23 10:08:00,85.6,50.6,29.62,ENE,68,9.2,9.2,30,0.00,CLR,,0.00,WeatherDisplay:10.37,2013-07-23 07:08:00,
2013-07-23 10:09:00,85.5,49.6,29.62,NNW,338,9.2,9.2,29,0.00,CLR,,0.00,WeatherDisplay:10.37,2013-07-23 07:09:00,
2013-07-23 10:11:00,85.3,50.3,29.62,NNE,22,9.2,9.2,30,0.00,CLR,,0.00,WeatherDisplay:10.37,2013-07-23 07:11:00,
2013-07-23 10:13:00,85.6,50.6,29.62,NNW,338,10.4,10.4,30,0.00,CLR,,0.00,WeatherDisplay:10.37,2013-07-23 07:13:00,
2013-07-23 10:14:00,86.0,50.0,29.62,NW,315,5.8,5.8,29,0.00,CLR,,0.00,WeatherDisplay:10.37,2013-07-23 07:14:00,
2013-07-23 10:16:00,86.0,50.0,29.62,NNW,338,7.4,7.4,29,0.00,CLR,,0.00,WeatherDisplay:10.37,2013-07-23 07:16:00,
2013-07-23 10:18:00,85.8,48.0,29.62,NE,45,11.5,11.5,27,0.00,CLR,,0.00,WeatherDisplay:10.37,2013-07-23 07:18:00,
2013-07-23 10:19:00,86.0,48.1,29.62,NNW,338,11.5,11.5,27,0.00,CLR,,0.00,WeatherDisplay:10.37,2013-07-23 07:19:00,
2013-07-23 10:21:00,85.8,48.0,29.62,NNW,338,9.2,9.2,27,0.00,CLR,,0.00,WeatherDisplay:10.37,2013-07-23 07:21:00,
2013-07-23 10:23:00,85.5,47.7,29.62,NNW,338,12.7,12.7,27,0.00,CLR,,0.00,WeatherDisplay:10.37,2013-07-23 07:23:00,
2013-07-23 10:24:00,85.3,47.5,29.62,NNW,338,12.7,12.7,27,0.00,CLR,,0.00,WeatherDisplay:10.37,2013-07-23 07:24:00,
2013-07-23 10:25:00,84.7,47.1,29.62,NNE,22,11.5,11.5,27,0.00,CLR,,0.00,WeatherDisplay:10.37,2013-07-23 07:25:00,
2013-07-23 10:27:00,84.7,47.1,29.62,NW,315,10.4,10.4,27,0.00,CLR,,0.00,WeatherDisplay:10.37,2013-07-23 07:27:00,
2013-07-23 10:28:00,84.4,46.7,29.62,NW,315,12.7,12.7,27,0.00,CLR,,0.00,WeatherDisplay:10.37,2013-07-23 07:28:00,
2013-07-23 10:29:00,84.2,46.6,29.62,NNW,338,12.7,12.7,27,0.00,CLR,,0.00,WeatherDisplay:10.37,2013-07-23 07:29:00,
2013-07-23 10:30:00,84.0,46.4,29.62,NNW,338,12.7,12.7,27,0.00,CLR,,0.00,WeatherDisplay:10.37,2013-07-23 07:30:00,
2013-07-23 10:32:00,83.8,46.3,29.62,NNW,338,11.5,11.5,27,0.00,CLR,,0.00,WeatherDisplay:10.37,2013-07-23 07:32:00,
2013-07-23 10:34:00,84.0,46.4,29.62,North,0,10.4,10.4,27,0.00,CLR,,0.00,WeatherDisplay:10.37,2013-07-23 07:34:00,
2013-07-23 10:35:00,84.2,46.6,29.62,NNE,22,12.7,12.7,27,0.00,CLR,,0.00,WeatherDisplay:10.37,2013-07-23 07:35:00,
2013-07-23 10:37:00,83.8,46.3,29.62,NNW,338,19.6,19.6,27,0.00,CLR,,0.00,WeatherDisplay:10.37,2013-07-23 07:37:00,
2013-07-23 10:39:00,84.0,46.4,29.62,NE,45,17.3,17.3,27,0.00,CLR,,0.00,WeatherDisplay:10.37,2013-07-23 07:39:00,
2013-07-23 10:40:00,84.0,46.4,29.62,ENE,68,19.7,19.7,27,0.00,CLR,,0.00,WeatherDisplay:10.37,2013-07-23 07:40:00,
2013-07-23 10:41:00,84.0,46.4,29.62,NNE,22,19.6,19.6,27,0.00,CLR,,0.00,WeatherDisplay:10.37,2013-07-23 07:41:00,
2013-07-23 10:42:00,84.2,46.6,29.62,NE,45,17.3,17.3,27,0.00,CLR,,0.00,WeatherDisplay:10.37,2013-07-23 07:42:00,
2013-07-23 10:44:00,84.9,47.2,29.62,North,0,12.7,12.7,27,0.00,CLR,,0.00,WeatherDisplay:10.37,2013-07-23 07:44:00,
2013-07-23 10:45:00,85.1,47.4,29.62,NNE,22,8.1,8.1,27,0.00,CLR,,0.00,WeatherDisplay:10.37,2013-07-23 07:45:00,
2013-07-23 10:46:00,85.5,47.7,29.62,ENE,68,8.1,8.1,27,0.00,CLR,,0.00,WeatherDisplay:10.37,2013-07-23 07:46:00,
2013-07-23 10:47:00,85.8,48.0,29.62,North,0,12.8,12.8,27,0.00,CLR,,0.00,WeatherDisplay:10.37,2013-07-23 07:47:00,
2013-07-23 10:49:00,85.5,44.5,29.62,North,0,15.0,15.0,24,0.00,CLR,,0.00,WeatherDisplay:10.37,2013-07-23 07:49:00,
2013-07-23 10:50:00,85.5,44.5,29.62,NNE,22,15.0,15.0,24,0.00,CLR,,0.00,WeatherDisplay:10.37,2013-07-23 07:50:00,
2013-07-23 10:51:00,85.5,44.5,29.62,NNE,22,12.7,12.7,24,0.00,CLR,,0.00,WeatherDisplay:10.37,2013-07-23 07:51:00,
2013-07-23 10:52:00,85.3,47.5,29.62,NNE,22,15.0,15.0,27,0.00,CLR,,0.00,WeatherDisplay:10.37,2013-07-23 07:52:00,
2013-07-23 10:54:00,84.9,47.2,29.62,NNW,338,10.4,10.4,27,0.00,CLR,,0.00,WeatherDisplay:10.37,2013-07-23 07:54:00,
2013-07-23 10:56:00,84.6,46.9,29.62,WNW,292,9.2,9.2,27,0.00,CLR,,0.00,WeatherDisplay:10.37,2013-07-23 07:56:00,
2013-07-23 10:57:00,85.3,47.5,29.62,NNW,338,8.1,8.1,27,0.00,CLR,,0.00,WeatherDisplay:10.37,2013-07-23 07:57:00,
2013-07-23 11:00:00,86.4,48.4,29.62,NNE,22,9.2,9.2,27,0.00,CLR,,0.00,WeatherDisplay:10.37,2013-07-23 08:00:00,
2013-07-23 11:01:00,86.5,48.6,29.62,NE,45,9.2,9.2,27,0.00,CLR,,0.00,WeatherDisplay:10.37,2013-07-23 08:01:00,
2013-07-23 11:02:00,86.9,48.9,29.62,NNW,338,9.2,9.2,27,0.00,CLR,,0.00,WeatherDisplay:10.37,2013-07-23 08:02:00,
2013-07-23 11:03:00,86.4,45.3,29.62,NNW,338,10.7,10.7,24,0.00,CLR,,0.00,WeatherDisplay:10.37,2013-07-23 08:03:00,
2013-07-23 11:05:00,86.1,45.1,29.62,NNW,344,10.0,14.0,24,0.00,CLR,,0.00,WeatherDisplay:10.37,2013-07-23 08:05:00,
2013-07-23 11:06:00,86.2,45.2,29.62,North,0,12.7,12.7,24,0.00,CLR,,0.00,WeatherDisplay:10.37,2013-07-23 08:06:00,
2013-07-23 11:07:00,84.9,44.1,29.62,NNW,338,13.8,13.8,24,0.00,CLR,,0.00,WeatherDisplay:10.37,2013-07-23 08:07:00,
2013-07-23 11:08:00,84.9,44.1,29.62,NNE,22,11.5,11.5,24,0.00,CLR,,0.00,WeatherDisplay:10.37,2013-07-23 08:08:00,
2013-07-23 11:10:00,85.8,48.0,29.62,North,0,9.2,9.2,27,0.00,CLR,,0.00,WeatherDisplay:10.37,2013-07-23 08:10:00,
2013-07-23 11:11:00,85.5,44.5,29.62,NNW,338,12.7,12.7,24,0.00,CLR,,0.00,WeatherDisplay:10.37,2013-07-23 08:11:00,
2013-07-23 11:12:00,84.6,43.8,29.62,NNW,338,11.5,11.5,24,0.00,CLR,,0.00,WeatherDisplay:10.37,2013-07-23 08:12:00,
2013-07-23 11:13:00,84.2,43.5,29.62,NNW,338,10.4,10.4,24,0.00,CLR,,0.00,WeatherDisplay:10.37,2013-07-23 08:13:00,
2013-07-23 11:15:00,83.8,44.3,29.62,NNE,22,12.7,12.7,25,0.00,CLR,,0.00,WeatherDisplay:10.37,2013-07-23 08:15:00,
2013-07-23 11:16:00,84.6,46.9,29.62,NW,315,11.5,11.5,27,0.00,CLR,,0.00,WeatherDisplay:10.37,2013-07-23 08:16:00,
2013-07-23 11:17:00,84.7,43.9,29.62,WNW,292,9.2,9.2,24,0.00,CLR,,0.00,WeatherDisplay:10.37,2013-07-23 08:17:00,
2013-07-23 11:18:00,84.6,43.8,29.62,NW,315,10.5,10.5,24,0.00,CLR,,0.00,WeatherDisplay:10.37,2013-07-23 08:18:00,
2013-07-23 11:20:00,85.1,44.2,29.62,North,0,15.0,15.0,24,0.00,CLR,,0.00,WeatherDisplay:10.37,2013-07-23 08:20:00,
2013-07-23 11:21:00,84.9,44.1,29.62,NNW,338,11.5,11.5,24,0.00,CLR,,0.00,WeatherDisplay:10.37,2013-07-23 08:21:00,
2013-07-23 11:22:00,85.3,44.4,29.62,ENE,68,10.4,10.4,24,0.00,CLR,,0.00,WeatherDisplay:10.37,2013-07-23 08:22:00,
2013-07-23 11:24:00,85.5,44.5,29.62,NNE,22,13.8,13.8,24,0.00,CLR,,0.00,WeatherDisplay:10.37,2013-07-23 08:24:00,
2013-07-23 11:25:00,85.3,44.4,29.62,NNE,22,12.8,12.8,24,0.00,CLR,,0.00,WeatherDisplay:10.37,2013-07-23 08:25:00,
2013-07-23 11:26:00,85.3,44.4,29.62,WNW,292,12.7,12.7,24,0.00,CLR,,0.00,WeatherDisplay:10.37,2013-07-23 08:26:00,
2013-07-23 11:27:00,85.1,44.2,29.62,North,0,12.7,12.7,24,0.00,CLR,,0.00,WeatherDisplay:10.37,2013-07-23 08:27:00,
2013-07-23 11:29:00,85.3,44.4,29.62,NNW,338,13.8,13.8,24,0.00,CLR,,0.00,WeatherDisplay:10.37,2013-07-23 08:29:00,
2013-07-23 11:30:00,85.3,44.4,29.62,NNW,338,12.7,12.7,24,0.00,CLR,,0.00,WeatherDisplay:10.37,2013-07-23 08:30:00,
2013-07-23 11:31:00,85.5,44.5,29.62,NNE,22,10.4,10.4,24,0.00,CLR,,0.00,WeatherDisplay:10.37,2013-07-23 08:31:00,
2013-07-23 11:32:00,85.8,44.8,29.62,NNE,22,13.8,13.8,24,0.00,CLR,,0.00,WeatherDisplay:10.37,2013-07-23 08:32:00,
2013-07-23 11:33:00,85.8,44.8,29.62,North,0,13.8,13.8,24,0.00,CLR,,0.00,WeatherDisplay:10.37,2013-07-23 08:33:00,
2013-07-23 11:34:00,86.4,45.3,29.62,NW,315,9.2,9.2,24,0.00,CLR,,0.00,WeatherDisplay:10.37,2013-07-23 08:34:00,
2013-07-23 11:35:00,86.7,45.6,29.62,NNE,22,9.8,9.8,24,0.00,CLR,,0.00,WeatherDisplay:10.37,2013-07-23 08:35:00,
2013-07-23 11:36:00,86.7,45.6,29.62,NNW,338,13.0,13.0,24,0.00,CLR,,0.00,WeatherDisplay:10.37,2013-07-23 08:36:00,
2013-07-23 11:38:00,86.5,45.5,29.62,NNW,338,10.4,10.4,24,0.00,CLR,,0.00,WeatherDisplay:10.37,2013-07-23 08:38:00,
2013-07-23 11:40:00,86.5,45.5,29.62,NNE,22,12.7,12.7,24,0.00,CLR,,0.00,WeatherDisplay:10.37,2013-07-23 08:40:00,
2013-07-23 11:41:00,87.1,45.9,29.62,NW,315,6.9,7.6,24,0.00,CLR,,0.00,WeatherDisplay:10.37,2013-07-23 08:41:00,
2013-07-23 11:43:00,87.3,46.1,29.62,NNW,338,12.3,12.3,24,0.00,CLR,,0.00,WeatherDisplay:10.37,2013-07-23 08:43:00,
2013-07-23 11:46:00,87.8,46.5,29.62,NW,315,13.8,13.8,24,0.00,CLR,,0.00,WeatherDisplay:10.37,2013-07-23 08:46:00,
2013-07-23 11:48:00,88.0,46.7,29.62,North,0,12.8,12.8,24,0.00,CLR,,0.00,WeatherDisplay:10.37,2013-07-23 08:48:00,
2013-07-23 11:49:00,88.0,46.7,29.62,NW,315,18.1,18.1,24,0.00,CLR,,0.00,WeatherDisplay:10.37,2013-07-23 08:49:00,
2013-07-23 11:51:00,87.6,46.4,29.62,North,0,9.8,9.8,24,0.00,CLR,,0.00,WeatherDisplay:10.37,2013-07-23 08:51:00,
2013-07-23 11:53:00,87.6,46.4,29.65,WNW,292,10.5,10.5,24,0.00,CLR,,0.00,WeatherDisplay:10.37,2013-07-23 08:53:00,
2013-07-23 11:54:00,87.6,46.4,29.65,NNW,338,9.2,9.2,24,0.00,CLR,,0.00,WeatherDisplay:10.37,2013-07-23 08:54:00,
2013-07-23 11:56:00,88.3,47.0,29.65,NNW,338,10.7,10.7,24,0.00,CLR,,0.00,WeatherDisplay:10.37,2013-07-23 08:56:00,
2013-07-23 11:58:00,87.6,46.4,29.65,NNW,338,13.2,13.2,24,0.00,CLR,,0.00,WeatherDisplay:10.37,2013-07-23 08:58:00,
2013-07-23 11:59:00,87.8,46.5,29.65,NNW,338,17.3,17.3,24,0.00,CLR,,0.00,WeatherDisplay:10.37,2013-07-23 08:59:00,
2013-07-23 12:00:00,87.4,46.2,29.65,ENE,68,17.3,17.3,24,0.00,CLR,,0.00,WeatherDisplay:10.37,2013-07-23 09:00:00,
2013-07-23 12:02:00,87.6,46.4,29.65,WNW,292,10.4,10.4,24,0.00,CLR,,0.00,WeatherDisplay:10.37,2013-07-23 09:02:00,
2013-07-23 12:04:00,88.5,47.1,29.65,WNW,292,5.8,5.8,24,0.00,CLR,,0.00,WeatherDisplay:10.37,2013-07-23 09:04:00,
2013-07-23 12:05:00,88.9,47.4,29.65,NNW,338,10.4,10.4,24,0.00,CLR,,0.00,WeatherDisplay:10.37,2013-07-23 09:05:00,
2013-07-23 12:07:00,88.5,47.1,29.65,NNW,338,10.4,10.4,24,0.00,CLR,,0.00,WeatherDisplay:10.37,2013-07-23 09:07:00,
2013-07-23 12:09:00,87.8,46.5,29.62,NNW,338,12.7,12.7,24,0.00,CLR,,0.00,WeatherDisplay:10.37,2013-07-23 09:09:00,
2013-07-23 12:10:00,88.3,47.0,29.62,WNW,292,6.4,6.4,24,0.00,CLR,,0.00,WeatherDisplay:10.37,2013-07-23 09:10:00,
2013-07-23 12:12:00,88.2,46.8,29.62,WNW,292,8.1,8.1,24,0.00,CLR,,0.00,WeatherDisplay:10.37,2013-07-23 09:12:00,
2013-07-23 12:14:00,88.0,46.7,29.62,NW,315,5.8,5.8,24,0.00,CLR,,0.00,WeatherDisplay:10.37,2013-07-23 09:14:00,
2013-07-23 12:15:00,87.1,45.9,29.62,NNW,338,9.2,9.2,24,0.00,CLR,,0.00,WeatherDisplay:10.37,2013-07-23 09:15:00,
2013-07-23 12:17:00,87.1,45.9,29.62,NNE,22,15.0,15.0,24,0.00,CLR,,0.00,WeatherDisplay:10.37,2013-07-23 09:17:00,
2013-07-23 12:19:00,86.9,45.8,29.62,NNW,338,8.1,8.1,24,0.00,CLR,,0.00,WeatherDisplay:10.37,2013-07-23 09:19:00,
2013-07-23 12:20:00,87.1,45.9,29.62,NNW,338,8.5,8.5,24,0.00,CLR,,0.00,WeatherDisplay:10.37,2013-07-23 09:20:00,
2013-07-23 12:21:00,87.1,45.9,29.62,North,0,6.2,6.2,24,0.00,CLR,,0.00,WeatherDisplay:10.37,2013-07-23 09:21:00,
2013-07-23 12:22:00,87.6,46.4,29.62,NNW,338,10.4,10.4,24,0.00,CLR,,0.00,WeatherDisplay:10.37,2013-07-23 09:22:00,
2013-07-23 12:24:00,88.5,47.1,29.62,NNW,338,11.8,11.8,24,0.00,CLR,,0.00,WeatherDisplay:10.37,2013-07-23 09:24:00,
2013-07-23 12:25:00,88.5,47.1,29.62,WNW,292,11.5,11.5,24,0.00,CLR,,0.00,WeatherDisplay:10.37,2013-07-23 09:25:00,
2013-07-23 12:26:00,88.3,47.0,29.62,North,0,11.5,11.5,24,0.00,CLR,,0.00,WeatherDisplay:10.37,2013-07-23 09:26:00,
2013-07-23 12:28:00,88.2,46.8,29.62,WNW,292,13.8,13.8,24,0.00,CLR,,0.00,WeatherDisplay:10.37,2013-07-23 09:28:00,
2013-07-23 12:29:00,88.2,46.8,29.62,NNW,338,8.1,8.1,24,0.00,CLR,,0.00,WeatherDisplay:10.37,2013-07-23 09:29:00,
2013-07-23 12:30:00,87.8,46.5,29.62,NW,315,10.4,10.4,24,0.00,CLR,,0.00,WeatherDisplay:10.37,2013-07-23 09:30:00,
2013-07-23 12:31:00,87.3,46.1,29.62,NNW,338,16.1,16.1,24,0.00,CLR,,0.00,WeatherDisplay:10.37,2013-07-23 09:31:00,
2013-07-23 12:33:00,87.4,46.2,29.62,NNW,338,12.1,12.1,24,0.00,CLR,,0.00,WeatherDisplay:10.37,2013-07-23 09:33:00,
2013-07-23 12:34:00,86.9,45.8,29.62,NNE,22,11.5,11.5,24,0.00,CLR,,0.00,WeatherDisplay:10.37,2013-07-23 09:34:00,
2013-07-23 12:35:00,86.9,45.8,29.62,West,270,10.4,10.4,24,0.00,CLR,,0.00,WeatherDisplay:10.37,2013-07-23 09:35:00,
2013-07-23 12:36:00,87.1,45.9,29.62,North,0,9.2,9.2,24,0.00,CLR,,0.00,WeatherDisplay:10.37,2013-07-23 09:36:00,
2013-07-23 12:38:00,87.4,46.2,29.62,North,0,12.7,12.7,24,0.00,CLR,,0.00,WeatherDisplay:10.37,2013-07-23 09:38:00,
2013-07-23 12:39:00,87.4,46.2,29.62,NNW,338,12.5,12.5,24,0.00,CLR,,0.00,WeatherDisplay:10.37,2013-07-23 09:39:00,
2013-07-23 12:40:00,87.4,46.2,29.62,NNW,347,9.0,17.0,24,0.00,CLR,,0.00,WeatherDisplay:10.37,2013-07-23 09:40:00,
2013-07-23 12:42:00,87.3,46.1,29.62,North,0,12.7,12.7,24,0.00,CLR,,0.00,WeatherDisplay:10.37,2013-07-23 09:42:00,
2013-07-23 12:43:00,87.1,45.9,29.62,NNE,22,15.0,15.0,24,0.00,CLR,,0.00,WeatherDisplay:10.37,2013-07-23 09:43:00,
2013-07-23 12:45:00,88.2,46.8,29.62,NNE,22,15.0,15.0,24,0.00,CLR,,0.00,WeatherDisplay:10.37,2013-07-23 09:45:00,
2013-07-23 12:47:00,88.7,47.3,29.62,NNW,338,8.1,8.1,24,0.00,CLR,,0.00,WeatherDisplay:10.37,2013-07-23 09:47:00,
2013-07-23 12:48:00,88.7,47.3,29.62,NNW,338,9.2,9.2,24,0.00,CLR,,0.00,WeatherDisplay:10.37,2013-07-23 09:48:00,
2013-07-23 12:50:00,88.6,47.2,29.62,North,359,9.0,13.0,24,0.00,CLR,,0.00,WeatherDisplay:10.37,2013-07-23 09:50:00,
2013-07-23 12:52:00,89.1,47.6,29.62,NW,315,9.2,9.2,24,0.00,CLR,,0.00,WeatherDisplay:10.37,2013-07-23 09:52:00,
2013-07-23 12:53:00,88.7,47.3,29.62,ENE,68,12.7,12.7,24,0.00,CLR,,0.00,WeatherDisplay:10.37,2013-07-23 09:53:00,
2013-07-23 12:55:00,89.1,47.6,29.62,NNE,22,10.5,10.5,24,0.00,CLR,,0.00,WeatherDisplay:10.37,2013-07-23 09:55:00,
2013-07-23 12:56:00,89.2,47.7,29.62,NW,315,12.7,12.7,24,0.00,CLR,,0.00,WeatherDisplay:10.37,2013-07-23 09:56:00,
2013-07-23 12:57:00,89.8,47.0,29.62,NNW,338,8.1,8.1,23,0.00,CLR,,0.00,WeatherDisplay:10.37,2013-07-23 09:57:00,
2013-07-23 12:58:00,90.1,47.3,29.62,WNW,292,5.8,5.8,23,0.00,CLR,,0.00,WeatherDisplay:10.37,2013-07-23 09:58:00,
2013-07-23 13:00:00,89.2,47.7,29.62,NNE,22,17.3,17.3,24,0.00,CLR,,0.00,WeatherDisplay:10.37,2013-07-23 10:00:00,
2013-07-23 13:01:00,89.4,47.9,29.62,NNW,338,17.3,17.3,24,0.00,CLR,,0.00,WeatherDisplay:10.37,2013-07-23 10:01:00,
2013-07-23 13:02:00,89.4,47.9,29.62,NE,45,9.2,9.2,24,0.00,CLR,,0.00,WeatherDisplay:10.37,2013-07-23 10:02:00,
2013-07-23 13:04:00,89.1,47.6,29.62,NNW,338,10.9,10.9,24,0.00,CLR,,0.00,WeatherDisplay:10.37,2013-07-23 10:04:00,
2013-07-23 13:05:00,88.9,47.4,29.62,NE,45,11.5,11.5,24,0.00,CLR,,0.00,WeatherDisplay:10.37,2013-07-23 10:05:00,
2013-07-23 13:06:00,88.7,47.3,29.62,North,0,10.4,10.4,24,0.00,CLR,,0.00,WeatherDisplay:10.37,2013-07-23 10:06:00,
2013-07-23 13:07:00,88.5,47.1,29.62,NNW,338,13.8,13.8,24,0.00,CLR,,0.00,WeatherDisplay:10.37,2013-07-23 10:07:00,
2013-07-23 13:09:00,88.3,47.0,29.62,NNW,338,15.0,15.0,24,0.00,CLR,,0.00,WeatherDisplay:10.37,2013-07-23 10:09:00,
2013-07-23 13:10:00,88.7,47.3,29.62,NNE,22,10.4,10.4,24,0.00,CLR,,0.00,WeatherDisplay:10.37,2013-07-23 10:10:00,
2013-07-23 13:11:00,88.7,47.3,29.62,NW,315,10.4,10.4,24,0.00,CLR,,0.00,WeatherDisplay:10.37,2013-07-23 10:11:00,
2013-07-23 13:12:00,88.9,47.4,29.62,NW,315,10.4,10.4,24,0.00,CLR,,0.00,WeatherDisplay:10.37,2013-07-23 10:12:00,
2013-07-23 13:13:00,88.9,47.4,29.62,NNW,338,8.1,8.1,24,0.00,CLR,,0.00,WeatherDisplay:10.37,2013-07-23 10:13:00,
2013-07-23 13:14:00,89.4,47.9,29.62,NNW,338,8.1,8.1,24,0.00,CLR,,0.00,WeatherDisplay:10.37,2013-07-23 10:14:00,
2013-07-23 13:16:00,89.8,47.0,29.62,NNE,22,8.1,8.1,23,0.00,CLR,,0.00,WeatherDisplay:10.37,2013-07-23 10:16:00,
2013-07-23 13:18:00,90.1,47.3,29.62,NNW,338,11.8,11.8,23,0.00,CLR,,0.00,WeatherDisplay:10.37,2013-07-23 10:18:00,
2013-07-23 13:19:00,90.1,47.3,29.62,NNE,22,14.5,14.5,23,0.00,CLR,,0.00,WeatherDisplay:10.37,2013-07-23 10:19:00,
2013-07-23 13:21:00,89.8,47.0,29.62,NNW,338,18.4,18.4,23,0.00,CLR,,0.00,WeatherDisplay:10.37,2013-07-23 10:21:00,
2013-07-23 13:22:00,89.2,47.7,29.62,NNE,22,12.7,12.7,24,0.00,CLR,,0.00,WeatherDisplay:10.37,2013-07-23 10:22:00,
2013-07-23 13:23:00,89.2,47.7,29.62,NNW,338,10.4,10.4,24,0.00,CLR,,0.00,WeatherDisplay:10.37,2013-07-23 10:23:00,
2013-07-23 13:24:00,88.5,47.1,29.62,NNW,338,17.3,17.3,24,0.00,CLR,,0.00,WeatherDisplay:10.37,2013-07-23 10:24:00,
2013-07-23 13:25:00,88.3,47.0,29.62,NE,45,17.3,17.3,24,0.00,CLR,,0.00,WeatherDisplay:10.37,2013-07-23 10:25:00,
2013-07-23 13:26:00,88.5,47.1,29.62,North,0,12.7,12.7,24,0.00,CLR,,0.00,WeatherDisplay:10.37,2013-07-23 10:26:00,
2013-07-23 13:27:00,88.9,47.4,29.62,NNW,338,11.5,11.5,24,0.00,CLR,,0.00,WeatherDisplay:10.37,2013-07-23 10:27:00,
2013-07-23 13:28:00,89.1,47.6,29.62,NW,315,8.1,8.1,24,0.00,CLR,,0.00,WeatherDisplay:10.37,2013-07-23 10:28:00,
2013-07-23 13:29:00,89.2,47.7,29.62,NNW,338,9.4,9.4,24,0.00,CLR,,0.00,WeatherDisplay:10.37,2013-07-23 10:29:00,
2013-07-23 13:30:00,89.4,47.9,29.62,NNE,22,9.2,9.2,24,0.00,CLR,,0.00,WeatherDisplay:10.37,2013-07-23 10:30:00,
2013-07-23 13:31:00,89.6,46.9,29.62,NNW,338,12.8,12.8,23,0.00,CLR,,0.00,WeatherDisplay:10.37,2013-07-23 10:31:00,
2013-07-23 13:32:00,89.2,47.7,29.62,NNW,338,12.8,12.8,24,0.00,CLR,,0.00,WeatherDisplay:10.37,2013-07-23 10:32:00,
2013-07-23 13:33:00,88.5,47.1,29.62,NNW,338,19.6,19.6,24,0.00,CLR,,0.00,WeatherDisplay:10.37,2013-07-23 10:33:00,
2013-07-23 13:34:00,88.0,46.7,29.62,NNE,22,17.3,17.3,24,0.00,CLR,,0.00,WeatherDisplay:10.37,2013-07-23 10:34:00,
2013-07-23 13:35:00,88.0,46.7,29.62,NNW,338,13.8,13.8,24,0.00,CLR,,0.00,WeatherDisplay:10.37,2013-07-23 10:35:00,
2013-07-23 13:36:00,87.6,46.4,29.62,NNW,338,17.0,17.0,24,0.00,CLR,,0.00,WeatherDisplay:10.37,2013-07-23 10:36:00,
2013-07-23 13:37:00,88.2,46.8,29.62,NNE,22,17.3,17.3,24,0.00,CLR,,0.00,WeatherDisplay:10.37,2013-07-23 10:37:00,
2013-07-23 13:38:00,87.8,46.5,29.62,NNW,338,13.8,13.8,24,0.00,CLR,,0.00,WeatherDisplay:10.37,2013-07-23 10:38:00,
2013-07-23 13:40:00,88.2,46.8,29.62,NNE,22,13.8,13.8,24,0.00,CLR,,0.00,WeatherDisplay:10.37,2013-07-23 10:40:00,
2013-07-23 13:41:00,88.9,47.4,29.62,NNW,338,9.2,9.2,24,0.00,CLR,,0.00,WeatherDisplay:10.37,2013-07-23 10:41:00,
2013-07-23 13:42:00,89.4,47.9,29.62,WNW,292,9.2,9.2,24,0.00,CLR,,0.00,WeatherDisplay:10.37,2013-07-23 10:42:00,
2013-07-23 13:44:00,89.6,46.9,29.62,North,0,6.9,6.9,23,0.00,CLR,,0.00,WeatherDisplay:10.37,2013-07-23 10:44:00,
2013-07-23 13:45:00,89.1,47.6,29.62,NNW,338,16.1,16.1,24,0.00,CLR,,0.00,WeatherDisplay:10.37,2013-07-23 10:45:00,
2013-07-23 13:46:00,88.9,47.4,29.62,NNW,338,13.8,13.8,24,0.00,CLR,,0.00,WeatherDisplay:10.37,2013-07-23 10:46:00,
2013-07-23 13:47:00,88.5,47.1,29.62,NW,315,12.7,12.7,24,0.00,CLR,,0.00,WeatherDisplay:10.37,2013-07-23 10:47:00,
2013-07-23 13:49:00,89.1,47.6,29.62,NNE,22,16.1,16.1,24,0.00,CLR,,0.00,WeatherDisplay:10.37,2013-07-23 10:49:00,
2013-07-23 13:50:00,88.7,47.3,29.62,North,0,16.1,16.1,24,0.00,CLR,,0.00,WeatherDisplay:10.37,2013-07-23 10:50:00,
2013-07-23 13:51:00,88.7,47.3,29.62,WNW,292,11.5,11.5,24,0.00,CLR,,0.00,WeatherDisplay:10.37,2013-07-23 10:51:00,
2013-07-23 13:53:00,88.7,47.3,29.62,NNW,338,10.4,10.4,24,0.00,CLR,,0.00,WeatherDisplay:10.37,2013-07-23 10:53:00,
2013-07-23 13:54:00,88.7,47.3,29.62,NNW,338,12.5,12.5,24,0.00,CLR,,0.00,WeatherDisplay:10.37,2013-07-23 10:54:00,
2013-07-23 13:55:00,88.2,46.8,29.62,NNW,338,13.0,13.0,24,0.00,CLR,,0.00,WeatherDisplay:10.37,2013-07-23 10:55:00,
2013-07-23 13:56:00,88.2,46.8,29.62,North,0,15.0,15.0,24,0.00,CLR,,0.00,WeatherDisplay:10.37,2013-07-23 10:56:00,
2013-07-23 13:58:00,88.7,47.3,29.62,North,0,10.5,10.5,24,0.00,CLR,,0.00,WeatherDisplay:10.37,2013-07-23 10:58:00,
2013-07-23 13:59:00,88.3,47.0,29.62,NNW,338,11.5,11.5,24,0.00,CLR,,0.00,WeatherDisplay:10.37,2013-07-23 10:59:00,
2013-07-23 14:01:00,88.5,47.1,29.62,NNE,22,12.7,12.7,24,0.00,CLR,,0.00,WeatherDisplay:10.37,2013-07-23 11:01:00,
2013-07-23 14:03:00,88.7,47.3,29.62,NNW,338,11.5,11.5,24,0.00,CLR,,0.00,WeatherDisplay:10.37,2013-07-23 11:03:00,
2013-07-23 14:04:00,88.3,47.0,29.62,North,0,12.7,12.7,24,0.00,CLR,,0.00,WeatherDisplay:10.37,2013-07-23 11:04:00,
2013-07-23 14:06:00,88.7,47.3,29.62,NNE,22,16.6,16.6,24,0.00,CLR,,0.00,WeatherDisplay:10.37,2013-07-23 11:06:00,
2013-07-23 14:08:00,88.7,47.3,29.62,NNW,338,17.3,17.3,24,0.00,CLR,,0.00,WeatherDisplay:10.37,2013-07-23 11:08:00,
2013-07-23 14:10:00,88.3,47.0,29.62,North,0,17.3,17.3,24,0.00,CLR,,0.00,WeatherDisplay:10.37,2013-07-23 11:10:00,
2013-07-23 14:11:00,88.3,47.0,29.62,NNW,338,13.8,13.8,24,0.00,CLR,,0.00,WeatherDisplay:10.37,2013-07-23 11:11:00,
2013-07-23 14:13:00,89.2,47.7,29.62,NNE,22,9.2,9.2,24,0.00,CLR,,0.00,WeatherDisplay:10.37,2013-07-23 11:13:00,
2013-07-23 14:15:00,89.2,47.7,29.62,WNW,292,8.1,8.1,24,0.00,CLR,,0.00,WeatherDisplay:10.37,2013-07-23 11:15:00,
2013-07-23 14:16:00,89.2,47.7,29.62,NNW,338,11.5,11.5,24,0.00,CLR,,0.00,WeatherDisplay:10.37,2013-07-23 11:16:00,
2013-07-23 14:17:00,89.4,47.9,29.62,NNW,338,8.1,8.1,24,0.00,CLR,,0.00,WeatherDisplay:10.37,2013-07-23 11:17:00,
2013-07-23 14:18:00,89.2,47.7,29.62,NNE,22,11.8,11.8,24,0.00,CLR,,0.00,WeatherDisplay:10.37,2013-07-23 11:18:00,
2013-07-23 14:20:00,89.2,47.7,29.62,NNW,338,12.7,12.7,24,0.00,CLR,,0.00,WeatherDisplay:10.37,2013-07-23 11:20:00,
2013-07-23 14:21:00,89.4,47.9,29.62,NE,45,12.7,12.7,24,0.00,CLR,,0.00,WeatherDisplay:10.37,2013-07-23 11:21:00,
2013-07-23 14:22:00,89.4,47.9,29.62,ENE,68,8.1,8.1,24,0.00,CLR,,0.00,WeatherDisplay:10.37,2013-07-23 11:22:00,
2013-07-23 14:24:00,89.8,47.0,29.62,ENE,68,11.5,11.5,23,0.00,CLR,,0.00,WeatherDisplay:10.37,2013-07-23 11:24:00,
2013-07-23 14:25:00,89.6,46.9,29.62,NNW,338,10.4,10.4,23,0.00,CLR,,0.00,WeatherDisplay:10.37,2013-07-23 11:25:00,
2013-07-23 14:27:00,89.6,46.9,29.62,NNW,338,11.4,11.4,23,0.00,CLR,,0.00,WeatherDisplay:10.37,2013-07-23 11:27:00,
2013-07-23 14:29:00,90.0,47.2,29.62,NW,315,7.4,7.4,23,0.00,CLR,,0.00,WeatherDisplay:10.37,2013-07-23 11:29:00,
2013-07-23 14:30:00,90.0,47.2,29.62,NNW,338,10.4,10.4,23,0.00,CLR,,0.00,WeatherDisplay:10.37,2013-07-23 11:30:00,
2013-07-23 14:32:00,89.6,46.9,29.62,NNW,338,10.4,10.4,23,0.00,CLR,,0.00,WeatherDisplay:10.37,2013-07-23 11:32:00,
2013-07-23 14:34:00,89.6,46.9,29.62,NNE,22,11.5,11.5,23,0.00,CLR,,0.00,WeatherDisplay:10.37,2013-07-23 11:34:00,
2013-07-23 14:36:00,90.0,47.2,29.62,WNW,292,9.2,9.2,23,0.00,CLR,,0.00,WeatherDisplay:10.37,2013-07-23 11:36:00,
2013-07-23 14:37:00,90.5,47.6,29.62,NNW,338,6.9,6.9,23,0.00,CLR,,0.00,WeatherDisplay:10.37,2013-07-23 11:37:00,
2013-07-23 14:38:00,90.5,47.6,29.62,NNW,338,8.7,8.7,23,0.00,CLR,,0.00,WeatherDisplay:10.37,2013-07-23 11:38:00,
2013-07-23 14:40:00,90.0,47.2,29.62,NW,315,11.5,11.5,23,0.00,CLR,,0.00,WeatherDisplay:10.37,2013-07-23 11:40:00,
2013-07-23 14:41:00,90.1,47.3,29.62,North,0,11.5,11.5,23,0.00,CLR,,0.00,WeatherDisplay:10.37,2013-07-23 11:41:00,
2013-07-23 14:42:00,90.1,47.3,29.62,North,0,12.7,12.7,23,0.00,CLR,,0.00,WeatherDisplay:10.37,2013-07-23 11:42:00,
2013-07-23 14:43:00,90.1,47.3,29.62,NNE,22,12.7,12.7,23,0.00,CLR,,0.00,WeatherDisplay:10.37,2013-07-23 11:43:00,
2013-07-23 14:45:00,90.0,47.2,29.62,WNW,292,10.4,10.4,23,0.00,CLR,,0.00,WeatherDisplay:10.37,2013-07-23 11:45:00,
2013-07-23 14:47:00,90.1,47.3,29.62,North,0,9.2,9.2,23,0.00,CLR,,0.00,WeatherDisplay:10.37,2013-07-23 11:47:00,
2013-07-23 14:48:00,90.0,47.2,29.62,NW,315,10.4,10.4,23,0.00,CLR,,0.00,WeatherDisplay:10.37,2013-07-23 11:48:00,
2013-07-23 14:50:00,90.1,47.3,29.62,WNW,292,13.2,13.2,23,0.00,CLR,,0.00,WeatherDisplay:10.37,2013-07-23 11:50:00,
2013-07-23 14:52:00,90.3,47.5,29.62,North,0,15.0,15.0,23,0.00,CLR,,0.00,WeatherDisplay:10.37,2013-07-23 11:52:00,
2013-07-23 14:53:00,90.3,47.5,29.62,NNW,338,15.0,15.0,23,0.00,CLR,,0.00,WeatherDisplay:10.37,2013-07-23 11:53:00,
2013-07-23 14:55:00,89.4,47.9,29.62,North,0,10.4,10.4,24,0.00,CLR,,0.00,WeatherDisplay:10.37,2013-07-23 11:55:00,
2013-07-23 14:58:00,89.6,46.9,29.62,NNE,22,13.8,13.8,23,0.00,CLR,,0.00,WeatherDisplay:10.37,2013-07-23 11:58:00,
2013-07-23 14:59:00,89.4,47.9,29.62,NNW,338,11.5,11.5,24,0.00,CLR,,0.00,WeatherDisplay:10.37,2013-07-23 11:59:00,
2013-07-23 15:01:00,89.8,47.0,29.62,NNW,338,5.8,5.8,23,0.00,CLR,,0.00,WeatherDisplay:10.37,2013-07-23 12:01:00,
2013-07-23 15:03:00,90.7,47.8,29.62,North,0,8.1,8.1,23,0.00,CLR,,0.00,WeatherDisplay:10.37,2013-07-23 12:03:00,
2013-07-23 15:04:00,90.1,47.3,29.62,NNE,22,10.2,10.2,23,0.00,CLR,,0.00,WeatherDisplay:10.37,2013-07-23 12:04:00,
2013-07-23 15:06:00,90.0,47.2,29.62,WNW,292,10.4,10.4,23,0.00,CLR,,0.00,WeatherDisplay:10.37,2013-07-23 12:06:00,
2013-07-23 15:08:00,90.0,47.2,29.62,NNE,22,11.5,11.5,23,0.00,CLR,,0.00,WeatherDisplay:10.37,2013-07-23 12:08:00,
2013-07-23 15:09:00,90.0,47.2,29.62,NW,315,13.0,13.0,23,0.00,CLR,,0.00,WeatherDisplay:10.37,2013-07-23 12:09:00,
2013-07-23 15:10:00,90.0,47.2,29.62,NNW,338,12.7,12.7,23,0.00,CLR,,0.00,WeatherDisplay:10.37,2013-07-23 12:10:00,
2013-07-23 15:11:00,89.8,47.0,29.62,WNW,292,12.7,12.7,23,0.00,CLR,,0.00,WeatherDisplay:10.37,2013-07-23 12:11:00,
2013-07-23 15:13:00,89.6,46.9,29.62,NNW,338,13.0,13.0,23,0.00,CLR,,0.00,WeatherDisplay:10.37,2013-07-23 12:13:00,
2013-07-23 15:14:00,89.6,46.9,29.62,NNW,338,11.5,11.5,23,0.00,CLR,,0.00,WeatherDisplay:10.37,2013-07-23 12:14:00,
2013-07-23 15:15:00,89.8,47.0,29.62,NW,315,8.1,8.1,23,0.00,CLR,,0.00,WeatherDisplay:10.37,2013-07-23 12:15:00,
2013-07-23 15:16:00,89.8,47.0,29.62,NNW,338,15.6,15.6,23,0.00,CLR,,0.00,WeatherDisplay:10.37,2013-07-23 12:16:00,
2013-07-23 15:18:00,90.1,47.3,29.62,NE,45,10.4,10.4,23,0.00,CLR,,0.00,WeatherDisplay:10.37,2013-07-23 12:18:00,
2013-07-23 15:19:00,89.8,47.0,29.62,ENE,68,13.8,13.8,23,0.00,CLR,,0.00,WeatherDisplay:10.37,2013-07-23 12:19:00,
2013-07-23 15:20:00,89.8,47.0,29.62,NNW,338,10.4,10.4,23,0.00,CLR,,0.00,WeatherDisplay:10.37,2013-07-23 12:20:00,
2013-07-23 15:22:00,90.3,47.5,29.62,NW,315,5.8,6.2,23,0.00,CLR,,0.00,WeatherDisplay:10.37,2013-07-23 12:22:00,
2013-07-23 15:23:00,90.7,47.8,29.62,NNW,338,8.1,8.1,23,0.00,CLR,,0.00,WeatherDisplay:10.37,2013-07-23 12:23:00,
2013-07-23 15:24:00,90.5,47.6,29.62,NNE,22,11.5,11.5,23,0.00,CLR,,0.00,WeatherDisplay:10.37,2013-07-23 12:24:00,
2013-07-23 15:26:00,90.7,47.8,29.62,NNW,338,10.4,10.4,23,0.00,CLR,,0.00,WeatherDisplay:10.37,2013-07-23 12:26:00,
2013-07-23 15:27:00,90.3,47.5,29.62,North,0,10.4,10.4,23,0.00,CLR,,0.00,WeatherDisplay:10.37,2013-07-23 12:27:00,
2013-07-23 15:28:00,90.7,47.8,29.62,NNE,22,8.1,8.1,23,0.00,CLR,,0.00,WeatherDisplay:10.37,2013-07-23 12:28:00,
2013-07-23 15:29:00,90.7,47.8,29.62,NNW,338,9.2,9.2,23,0.00,CLR,,0.00,WeatherDisplay:10.37,2013-07-23 12:29:00,
2013-07-23 15:31:00,90.9,47.9,29.62,NNW,338,8.5,8.5,23,0.00,CLR,,0.00,WeatherDisplay:10.37,2013-07-23 12:31:00,
2013-07-23 15:32:00,90.7,47.8,29.62,NNE,22,8.1,8.1,23,0.00,CLR,,0.00,WeatherDisplay:10.37,2013-07-23 12:32:00,
2013-07-23 15:34:00,90.7,47.8,29.62,ENE,68,6.9,7.4,23,0.00,CLR,,0.00,WeatherDisplay:10.37,2013-07-23 12:34:00,
2013-07-23 15:37:00,90.7,47.8,29.62,NNE,22,13.0,13.0,23,0.00,CLR,,0.00,WeatherDisplay:10.37,2013-07-23 12:37:00,
2013-07-23 15:39:00,89.8,47.0,29.62,ENE,68,15.0,15.0,23,0.00,CLR,,0.00,WeatherDisplay:10.37,2013-07-23 12:39:00,
2013-07-23 15:40:00,89.8,47.0,29.62,NNE,22,12.0,15.0,23,0.00,CLR,,0.00,WeatherDisplay:10.37,2013-07-23 12:40:00,
2013-07-23 15:42:00,90.1,47.3,29.62,North,0,13.0,13.0,23,0.00,CLR,,0.00,WeatherDisplay:10.37,2013-07-23 12:42:00,
2013-07-23 15:44:00,90.5,47.6,29.62,North,0,12.3,12.3,23,0.00,CLR,,0.00,WeatherDisplay:10.37,2013-07-23 12:44:00,
2013-07-23 15:45:00,90.5,47.6,29.62,WNW,292,12.7,12.7,23,0.00,CLR,,0.00,WeatherDisplay:10.37,2013-07-23 12:45:00,
2013-07-23 15:47:00,90.5,47.6,29.62,NNW,338,16.1,16.1,23,0.00,CLR,,0.00,WeatherDisplay:10.37,2013-07-23 12:47:00,
2013-07-23 15:50:00,90.1,47.3,29.62,North,0,13.8,13.8,23,0.00,CLR,,0.00,WeatherDisplay:10.37,2013-07-23 12:50:00,
2013-07-23 15:52:00,90.5,47.6,29.62,NNW,338,9.2,9.2,23,0.00,CLR,,0.00,WeatherDisplay:10.37,2013-07-23 12:52:00,
2013-07-23 15:53:00,90.5,47.6,29.62,NW,315,10.9,10.9,23,0.00,CLR,,0.00,WeatherDisplay:10.37,2013-07-23 12:53:00,
2013-07-23 15:55:00,90.3,47.5,29.62,NNW,338,12.7,12.7,23,0.00,CLR,,0.00,WeatherDisplay:10.37,2013-07-23 12:55:00,
2013-07-23 15:57:00,90.5,47.6,29.62,North,0,10.9,10.9,23,0.00,CLR,,0.00,WeatherDisplay:10.37,2013-07-23 12:57:00,
2013-07-23 15:58:00,90.5,47.6,29.62,North,0,12.7,12.7,23,0.00,CLR,,0.00,WeatherDisplay:10.37,2013-07-23 12:58:00,
2013-07-23 16:00:00,90.5,47.6,29.62,NNW,338,9.2,9.2,23,0.00,CLR,,0.00,WeatherDisplay:10.37,2013-07-23 13:00:00,
2013-07-23 16:03:00,90.1,47.3,29.62,North,0,12.8,12.8,23,0.00,CLR,,0.00,WeatherDisplay:10.37,2013-07-23 13:03:00,
2013-07-23 16:04:00,90.1,47.3,29.62,NNW,338,12.7,12.7,23,0.00,CLR,,0.00,WeatherDisplay:10.37,2013-07-23 13:04:00,
2013-07-23 16:05:00,90.5,47.6,29.62,NNW,338,6.9,6.9,23,0.00,CLR,,0.00,WeatherDisplay:10.37,2013-07-23 13:05:00,
2013-07-23 16:06:00,90.5,47.6,29.62,NW,315,8.1,8.1,23,0.00,CLR,,0.00,WeatherDisplay:10.37,2013-07-23 13:06:00,
2013-07-23 16:08:00,90.3,47.5,29.62,NNW,338,10.4,10.4,23,0.00,CLR,,0.00,WeatherDisplay:10.37,2013-07-23 13:08:00,
2013-07-23 16:09:00,90.7,47.8,29.62,NNE,22,9.2,9.2,23,0.00,CLR,,0.00,WeatherDisplay:10.37,2013-07-23 13:09:00,
2013-07-23 16:10:00,90.5,47.6,29.62,NNW,338,13.8,13.8,23,0.00,CLR,,0.00,WeatherDisplay:10.37,2013-07-23 13:10:00,
2013-07-23 16:11:00,90.5,47.6,29.62,NNW,338,13.8,13.8,23,0.00,CLR,,0.00,WeatherDisplay:10.37,2013-07-23 13:11:00,
2013-07-23 16:13:00,90.3,47.5,29.62,WNW,292,10.4,10.4,23,0.00,CLR,,0.00,WeatherDisplay:10.37,2013-07-23 13:13:00,
2013-07-23 16:15:00,90.5,47.6,29.62,WNW,292,13.8,13.8,23,0.00,CLR,,0.00,WeatherDisplay:10.37,2013-07-23 13:15:00,
2013-07-23 16:16:00,90.7,47.8,29.62,West,270,11.5,11.5,23,0.00,CLR,,0.00,WeatherDisplay:10.37,2013-07-23 13:16:00,
2013-07-23 16:18:00,90.5,47.6,29.62,WNW,292,10.4,10.4,23,0.00,CLR,,0.00,WeatherDisplay:10.37,2013-07-23 13:18:00,
2013-07-23 16:20:00,90.3,47.5,29.62,NNW,338,9.2,9.2,23,0.00,CLR,,0.00,WeatherDisplay:10.37,2013-07-23 13:20:00,
2013-07-23 16:21:00,91.0,48.1,29.62,WNW,292,8.1,8.1,23,0.00,CLR,,0.00,WeatherDisplay:10.37,2013-07-23 13:21:00,
2013-07-23 16:22:00,91.0,48.1,29.62,NNW,338,6.9,6.9,23,0.00,CLR,,0.00,WeatherDisplay:10.37,2013-07-23 13:22:00,
2013-07-23 16:24:00,91.0,48.1,29.62,North,0,9.2,9.2,23,0.00,CLR,,0.00,WeatherDisplay:10.37,2013-07-23 13:24:00,
2013-07-23 16:25:00,90.9,47.9,29.62,NNE,22,11.5,11.5,23,0.00,CLR,,0.00,WeatherDisplay:10.37,2013-07-23 13:25:00,
2013-07-23 16:27:00,90.5,47.6,29.62,North,0,11.5,11.5,23,0.00,CLR,,0.00,WeatherDisplay:10.37,2013-07-23 13:27:00,
2013-07-23 16:29:00,90.7,47.8,29.62,West,270,13.8,13.8,23,0.00,CLR,,0.00,WeatherDisplay:10.37,2013-07-23 13:29:00,
2013-07-23 16:30:00,90.5,47.6,29.62,NNE,22,13.8,13.8,23,0.00,CLR,,0.00,WeatherDisplay:10.37,2013-07-23 13:30:00,
2013-07-23 16:31:00,90.5,47.6,29.62,North,0,16.1,16.1,23,0.00,CLR,,0.00,WeatherDisplay:10.37,2013-07-23 13:31:00,
2013-07-23 16:32:00,90.1,47.3,29.62,NNW,338,16.1,16.1,23,0.00,CLR,,0.00,WeatherDisplay:10.37,2013-07-23 13:32:00,
2013-07-23 16:34:00,90.1,47.3,29.62,North,0,8.7,9.0,23,0.00,CLR,,0.00,WeatherDisplay:10.37,2013-07-23 13:34:00,
2013-07-23 16:35:00,90.3,47.5,29.62,NNW,338,12.7,12.7,23,0.00,CLR,,0.00,WeatherDisplay:10.37,2013-07-23 13:35:00,
2013-07-23 16:36:00,90.3,47.5,29.62,NNW,338,9.2,9.2,23,0.00,CLR,,0.00,WeatherDisplay:10.37,2013-07-23 13:36:00,
2013-07-23 16:37:00,90.3,47.5,29.62,ENE,68,9.2,9.2,23,0.00,CLR,,0.00,WeatherDisplay:10.37,2013-07-23 13:37:00,
2013-07-23 16:39:00,90.9,47.9,29.59,North,0,10.7,10.7,23,0.00,CLR,,0.00,WeatherDisplay:10.37,2013-07-23 13:39:00,
2013-07-23 16:41:00,90.1,47.3,29.59,NNW,338,10.4,10.7,23,0.00,CLR,,0.00,WeatherDisplay:10.37,2013-07-23 13:41:00,
2013-07-23 16:42:00,90.3,47.5,29.59,NNW,338,9.8,9.8,23,0.00,CLR,,0.00,WeatherDisplay:10.37,2013-07-23 13:42:00,
2013-07-23 16:45:00,89.8,47.0,29.59,NNE,22,12.5,12.5,23,0.00,CLR,,0.00,WeatherDisplay:10.37,2013-07-23 13:45:00,
2013-07-23 16:46:00,90.0,47.2,29.59,NNW,338,12.7,12.7,23,0.00,CLR,,0.00,WeatherDisplay:10.37,2013-07-23 13:46:00,
2013-07-23 16:47:00,89.8,47.0,29.59,NNW,338,11.5,11.5,23,0.00,CLR,,0.00,WeatherDisplay:10.37,2013-07-23 13:47:00,
2013-07-23 16:48:00,89.8,47.0,29.59,NNW,338,13.8,13.8,23,0.00,CLR,,0.00,WeatherDisplay:10.37,2013-07-23 13:48:00,
2013-07-23 16:50:00,89.8,47.0,29.59,NNW,338,13.0,13.0,23,0.00,CLR,,0.00,WeatherDisplay:10.37,2013-07-23 13:50:00,
2013-07-23 16:51:00,90.1,47.3,29.59,North,0,9.2,9.2,23,0.00,CLR,,0.00,WeatherDisplay:10.37,2013-07-23 13:51:00,
2013-07-23 16:53:00,90.0,47.2,29.62,North,0,10.4,10.4,23,0.00,CLR,,0.00,WeatherDisplay:10.37,2013-07-23 13:53:00,
2013-07-23 16:55:00,90.1,47.3,29.62,NNW,327,6.0,10.0,23,0.00,CLR,,0.00,WeatherDisplay:10.37,2013-07-23 13:55:00,
2013-07-23 16:56:00,90.1,47.3,29.62,North,0,5.4,5.4,23,0.00,CLR,,0.00,WeatherDisplay:10.37,2013-07-23 13:56:00,
2013-07-23 16:57:00,90.1,47.3,29.62,NNW,338,4.6,4.6,23,0.00,CLR,,0.00,WeatherDisplay:10.37,2013-07-23 13:57:00,
2013-07-23 16:59:00,90.3,47.5,29.62,NNE,22,13.8,13.8,23,0.00,CLR,,0.00,WeatherDisplay:10.37,2013-07-23 13:59:00,
2013-07-23 17:00:00,90.3,47.5,29.62,NNW,338,11.5,11.5,23,0.00,CLR,,0.00,WeatherDisplay:10.37,2013-07-23 14:00:00,
2013-07-23 17:01:00,90.7,47.8,29.62,NNW,338,8.1,8.1,23,0.00,CLR,,0.00,WeatherDisplay:10.37,2013-07-23 14:01:00,
2013-07-23 17:02:00,90.5,47.6,29.62,NNE,22,12.1,12.1,23,0.00,CLR,,0.00,WeatherDisplay:10.37,2013-07-23 14:02:00,
2013-07-23 17:04:00,90.5,47.6,29.62,East,90,12.7,12.7,23,0.00,CLR,,0.00,WeatherDisplay:10.37,2013-07-23 14:04:00,
2013-07-23 17:05:00,90.1,47.3,29.62,North,0,10.4,10.4,23,0.00,CLR,,0.00,WeatherDisplay:10.37,2013-07-23 14:05:00,
2013-07-23 17:06:00,90.7,47.8,29.62,NE,45,8.1,8.1,23,0.00,CLR,,0.00,WeatherDisplay:10.37,2013-07-23 14:06:00,
2013-07-23 17:07:00,90.7,47.8,29.62,NNE,22,10.9,10.9,23,0.00,CLR,,0.00,WeatherDisplay:10.37,2013-07-23 14:07:00,
2013-07-23 17:09:00,90.1,47.3,29.59,NNW,338,13.8,13.8,23,0.00,CLR,,0.00,WeatherDisplay:10.37,2013-07-23 14:09:00,
2013-07-23 17:10:00,90.3,47.5,29.59,NW,315,13.8,13.8,23,0.00,CLR,,0.00,WeatherDisplay:10.37,2013-07-23 14:10:00,
2013-07-23 17:11:00,90.5,47.6,29.59,NNE,22,8.1,8.1,23,0.00,CLR,,0.00,WeatherDisplay:10.37,2013-07-23 14:11:00,
2013-07-23 17:12:00,90.7,47.8,29.59,NNE,22,8.1,8.1,23,0.00,CLR,,0.00,WeatherDisplay:10.37,2013-07-23 14:12:00,
2013-07-23 17:14:00,90.5,47.6,29.59,NNE,22,12.7,12.7,23,0.00,CLR,,0.00,WeatherDisplay:10.37,2013-07-23 14:14:00,
2013-07-23 17:15:00,90.5,47.6,29.59,NNW,338,10.4,10.4,23,0.00,CLR,,0.00,WeatherDisplay:10.37,2013-07-23 14:15:00,
2013-07-23 17:17:00,90.5,47.6,29.59,NW,315,8.1,8.1,23,0.00,CLR,,0.00,WeatherDisplay:10.37,2013-07-23 14:17:00,
2013-07-23 17:19:00,90.9,47.9,29.59,West,270,8.5,8.5,23,0.00,CLR,,0.00,WeatherDisplay:10.37,2013-07-23 14:19:00,
2013-07-23 17:20:00,90.7,47.8,29.59,WNW,292,15.0,15.0,23,0.00,CLR,,0.00,WeatherDisplay:10.37,2013-07-23 14:20:00,
2013-07-23 17:22:00,90.7,47.8,29.59,NNW,338,15.0,15.0,23,0.00,CLR,,0.00,WeatherDisplay:10.37,2013-07-23 14:22:00,
2013-07-23 17:23:00,90.5,47.6,29.59,NW,315,15.0,15.0,23,0.00,CLR,,0.00,WeatherDisplay:10.37,2013-07-23 14:23:00,
2013-07-23 17:25:00,90.3,47.5,29.59,NW,319,8.0,15.0,23,0.00,CLR,,0.00,WeatherDisplay:10.37,2013-07-23 14:25:00,
2013-07-23 17:27:00,90.1,47.3,29.59,West,270,9.2,9.2,23,0.00,CLR,,0.00,WeatherDisplay:10.37,2013-07-23 14:27:00,
2013-07-23 17:28:00,90.3,47.5,29.59,WNW,292,8.1,8.1,23,0.00,CLR,,0.00,WeatherDisplay:10.37,2013-07-23 14:28:00,
2013-07-23 17:30:00,90.6,47.7,29.59,NW,310,5.0,13.0,23,0.00,CLR,,0.00,WeatherDisplay:10.37,2013-07-23 14:30:00,
2013-07-23 17:32:00,90.3,47.5,29.59,NNW,338,15.0,15.0,23,0.00,CLR,,0.00,WeatherDisplay:10.37,2013-07-23 14:32:00,
2013-07-23 17:33:00,90.5,47.6,29.59,NW,315,8.1,8.1,23,0.00,CLR,,0.00,WeatherDisplay:10.37,2013-07-23 14:33:00,
2013-07-23 17:35:00,90.3,47.5,29.59,NNW,338,12.7,12.7,23,0.00,CLR,,0.00,WeatherDisplay:10.37,2013-07-23 14:35:00,
2013-07-23 17:36:00,90.1,47.3,29.59,NNW,338,6.9,8.1,23,0.00,CLR,,0.00,WeatherDisplay:10.37,2013-07-23 14:36:00,
2013-07-23 17:37:00,90.3,47.5,29.59,NNW,338,14.7,14.7,23,0.00,CLR,,0.00,WeatherDisplay:10.37,2013-07-23 14:37:00,
2013-07-23 17:38:00,90.0,47.2,29.59,NW,315,15.0,15.0,23,0.00,CLR,,0.00,WeatherDisplay:10.37,2013-07-23 14:38:00,
2013-07-23 17:40:00,90.1,47.3,29.59,NNW,338,10.4,10.4,23,0.00,CLR,,0.00,WeatherDisplay:10.37,2013-07-23 14:40:00,
2013-07-23 17:41:00,89.8,47.0,29.59,WNW,292,11.5,11.5,23,0.00,CLR,,0.00,WeatherDisplay:10.37,2013-07-23 14:41:00,
2013-07-23 17:42:00,89.6,46.9,29.59,WNW,292,13.8,13.8,23,0.00,CLR,,0.00,WeatherDisplay:10.37,2013-07-23 14:42:00,
2013-07-23 17:43:00,89.6,46.9,29.59,NNW,338,13.8,13.8,23,0.00,CLR,,0.00,WeatherDisplay:10.37,2013-07-23 14:43:00,
2013-07-23 17:45:00,90.0,47.2,29.59,NNW,338,8.1,8.1,23,0.00,CLR,,0.00,WeatherDisplay:10.37,2013-07-23 14:45:00,
2013-07-23 17:46:00,89.8,47.0,29.59,NNW,338,10.4,10.4,23,0.00,CLR,,0.00,WeatherDisplay:10.37,2013-07-23 14:46:00,
2013-07-23 17:48:00,90.0,47.2,29.59,NNW,338,10.4,10.4,23,0.00,CLR,,0.00,WeatherDisplay:10.37,2013-07-23 14:48:00,
2013-07-23 17:50:00,89.8,47.0,29.59,NNW,338,12.7,12.7,23,0.00,CLR,,0.00,WeatherDisplay:10.37,2013-07-23 14:50:00,
2013-07-23 17:51:00,90.0,47.2,29.59,WNW,292,10.4,10.4,23,0.00,CLR,,0.00,WeatherDisplay:10.37,2013-07-23 14:51:00,
2013-07-23 17:53:00,90.0,47.2,29.59,WNW,292,6.9,6.9,23,0.00,CLR,,0.00,WeatherDisplay:10.37,2013-07-23 14:53:00,
2013-07-23 17:54:00,90.0,47.2,29.59,NNW,338,12.7,12.7,23,0.00,CLR,,0.00,WeatherDisplay:10.37,2013-07-23 14:54:00,
2013-07-23 17:55:00,90.1,47.3,29.59,NNE,22,12.7,12.7,23,0.00,CLR,,0.00,WeatherDisplay:10.37,2013-07-23 14:55:00,
2013-07-23 17:56:00,90.0,47.2,29.59,NNW,338,10.4,10.4,23,0.00,CLR,,0.00,WeatherDisplay:10.37,2013-07-23 14:56:00,
2013-07-23 17:57:00,90.0,47.2,29.59,North,0,10.4,10.4,23,0.00,CLR,,0.00,WeatherDisplay:10.37,2013-07-23 14:57:00,
2013-07-23 17:58:00,89.6,46.9,29.59,NNE,22,10.5,10.5,23,0.00,CLR,,0.00,WeatherDisplay:10.37,2013-07-23 14:58:00,
2013-07-23 17:59:00,89.6,46.9,29.59,North,0,10.4,10.4,23,0.00,CLR,,0.00,WeatherDisplay:10.37,2013-07-23 14:59:00,
2013-07-23 18:01:00,89.4,47.9,29.59,NE,45,15.0,15.0,24,0.00,CLR,,0.00,WeatherDisplay:10.37,2013-07-23 15:01:00,
2013-07-23 18:02:00,89.1,47.6,29.59,NNW,338,11.5,11.5,24,0.00,CLR,,0.00,WeatherDisplay:10.37,2013-07-23 15:02:00,
2013-07-23 18:04:00,89.1,47.6,29.59,NNW,338,9.2,9.2,24,0.00,CLR,,0.00,WeatherDisplay:10.37,2013-07-23 15:04:00,
2013-07-23 18:05:00,89.2,47.7,29.59,West,270,9.2,9.2,24,0.00,CLR,,0.00,WeatherDisplay:10.37,2013-07-23 15:05:00,
2013-07-23 18:06:00,89.2,47.7,29.59,WNW,292,10.4,10.4,24,0.00,CLR,,0.00,WeatherDisplay:10.37,2013-07-23 15:06:00,
2013-07-23 18:07:00,88.9,47.4,29.59,North,0,12.8,12.8,24,0.00,CLR,,0.00,WeatherDisplay:10.37,2013-07-23 15:07:00,
2013-07-23 18:09:00,89.2,47.7,29.59,NNE,22,10.4,10.4,24,0.00,CLR,,0.00,WeatherDisplay:10.37,2013-07-23 15:09:00,
2013-07-23 18:10:00,89.2,47.7,29.59,NNW,338,15.2,15.2,24,0.00,CLR,,0.00,WeatherDisplay:10.37,2013-07-23 15:10:00,
2013-07-23 18:11:00,88.9,47.4,29.59,NW,315,15.0,15.0,24,0.00,CLR,,0.00,WeatherDisplay:10.37,2013-07-23 15:11:00,
2013-07-23 18:12:00,88.9,47.4,29.59,WSW,248,11.5,11.5,24,0.00,CLR,,0.00,WeatherDisplay:10.37,2013-07-23 15:12:00,
2013-07-23 18:14:00,89.2,47.7,29.59,WNW,292,10.4,10.4,24,0.00,CLR,,0.00,WeatherDisplay:10.37,2013-07-23 15:14:00,
2013-07-23 18:15:00,89.2,47.7,29.59,NNW,338,10.4,10.4,24,0.00,CLR,,0.00,WeatherDisplay:10.37,2013-07-23 15:15:00,
2013-07-23 18:16:00,89.1,47.6,29.59,NW,315,12.7,12.7,24,0.00,CLR,,0.00,WeatherDisplay:10.37,2013-07-23 15:16:00,
2013-07-23 18:17:00,89.1,47.6,29.59,North,0,13.5,13.5,24,0.00,CLR,,0.00,WeatherDisplay:10.37,2013-07-23 15:17:00,
2013-07-23 18:19:00,88.7,47.3,29.59,North,0,15.0,15.0,24,0.00,CLR,,0.00,WeatherDisplay:10.37,2013-07-23 15:19:00,
2013-07-23 18:20:00,88.7,47.3,29.59,NNW,338,11.5,11.5,24,0.00,CLR,,0.00,WeatherDisplay:10.37,2013-07-23 15:20:00,
2013-07-23 18:21:00,88.5,47.1,29.59,NNE,22,10.4,10.4,24,0.00,CLR,,0.00,WeatherDisplay:10.37,2013-07-23 15:21:00,
2013-07-23 18:23:00,88.3,47.0,29.59,WNW,292,12.7,12.7,24,0.00,CLR,,0.00,WeatherDisplay:10.37,2013-07-23 15:23:00,
2013-07-23 18:25:00,88.7,47.3,29.59,NNW,338,5.8,5.8,24,0.00,CLR,,0.00,WeatherDisplay:10.37,2013-07-23 15:25:00,
2013-07-23 18:26:00,89.2,47.7,29.59,NW,315,6.9,6.9,24,0.00,CLR,,0.00,WeatherDisplay:10.37,2013-07-23 15:26:00,
2013-07-23 18:27:00,89.6,46.9,29.59,NNW,338,6.9,6.9,23,0.00,CLR,,0.00,WeatherDisplay:10.37,2013-07-23 15:27:00,
2013-07-23 18:28:00,89.8,47.0,29.59,NNE,22,4.6,4.6,23,0.00,CLR,,0.00,WeatherDisplay:10.37,2013-07-23 15:28:00,
2013-07-23 18:30:00,89.8,47.0,29.59,NW,315,11.5,11.5,23,0.00,CLR,,0.00,WeatherDisplay:10.37,2013-07-23 15:30:00,
2013-07-23 18:32:00,89.1,47.6,29.59,NW,315,12.7,12.7,24,0.00,CLR,,0.00,WeatherDisplay:10.37,2013-07-23 15:32:00,
2013-07-23 18:33:00,88.9,47.4,29.59,NNW,338,13.8,13.8,24,0.00,CLR,,0.00,WeatherDisplay:10.37,2013-07-23 15:33:00,
2013-07-23 18:35:00,88.9,47.4,29.59,NNW,338,12.8,12.8,24,0.00,CLR,,0.00,WeatherDisplay:10.37,2013-07-23 15:35:00,
2013-07-23 18:37:00,88.5,47.1,29.59,NNE,22,11.5,11.5,24,0.00,CLR,,0.00,WeatherDisplay:10.37,2013-07-23 15:37:00,
2013-07-23 18:38:00,88.5,47.1,29.59,NNW,338,11.5,11.5,24,0.00,CLR,,0.00,WeatherDisplay:10.37,2013-07-23 15:38:00,
2013-07-23 18:40:00,88.9,47.4,29.59,NNW,338,6.9,6.9,24,0.00,CLR,,0.00,WeatherDisplay:10.37,2013-07-23 15:40:00,
2013-07-23 18:42:00,88.7,47.3,29.59,WNW,292,15.0,15.0,24,0.00,CLR,,0.00,WeatherDisplay:10.37,2013-07-23 15:42:00,
2013-07-23 18:43:00,88.7,47.3,29.59,NNW,338,9.2,9.2,24,0.00,CLR,,0.00,WeatherDisplay:10.37,2013-07-23 15:43:00,
2013-07-23 18:45:00,88.5,47.1,29.59,NNW,338,9.2,9.2,24,0.00,CLR,,0.00,WeatherDisplay:10.37,2013-07-23 15:45:00,
2013-07-23 18:46:00,88.7,47.3,29.59,NNE,22,6.9,6.9,24,0.00,CLR,,0.00,WeatherDisplay:10.37,2013-07-23 15:46:00,
2013-07-23 18:48:00,88.7,47.3,29.59,NW,315,6.9,6.9,24,0.00,CLR,,0.00,WeatherDisplay:10.37,2013-07-23 15:48:00,
2013-07-23 18:50:00,88.7,47.3,29.59,NNW,338,8.1,8.1,24,0.00,CLR,,0.00,WeatherDisplay:10.37,2013-07-23 15:50:00,
2013-07-23 18:51:00,88.9,47.4,29.59,NW,315,6.9,6.9,24,0.00,CLR,,0.00,WeatherDisplay:10.37,2013-07-23 15:51:00,
2013-07-23 18:53:00,88.5,47.1,29.59,NNW,338,11.5,11.5,24,0.00,CLR,,0.00,WeatherDisplay:10.37,2013-07-23 15:53:00,
2013-07-23 18:54:00,88.3,47.0,29.59,North,0,15.0,15.0,24,0.00,CLR,,0.00,WeatherDisplay:10.37,2013-07-23 15:54:00,
2013-07-23 18:55:00,87.8,46.5,29.59,NNE,22,12.7,12.7,24,0.00,CLR,,0.00,WeatherDisplay:10.37,2013-07-23 15:55:00,
2013-07-23 18:56:00,88.2,46.8,29.59,NNW,338,7.6,7.6,24,0.00,CLR,,0.00,WeatherDisplay:10.37,2013-07-23 15:56:00,
2013-07-23 18:58:00,88.2,46.8,29.59,NNW,338,11.5,11.5,24,0.00,CLR,,0.00,WeatherDisplay:10.37,2013-07-23 15:58:00,
2013-07-23 18:59:00,88.2,46.8,29.59,North,0,11.5,11.5,24,0.00,CLR,,0.00,WeatherDisplay:10.37,2013-07-23 15:59:00,
2013-07-23 19:00:00,88.2,46.8,29.59,North,0,11.5,11.5,24,0.00,CLR,,0.00,WeatherDisplay:10.37,2013-07-23 16:00:00,
2013-07-23 19:01:00,88.3,47.0,29.59,NNW,338,8.5,8.5,24,0.00,CLR,,0.00,WeatherDisplay:10.37,2013-07-23 16:01:00,
2013-07-23 19:03:00,88.2,46.8,29.59,NNW,338,11.5,11.5,24,0.00,CLR,,0.00,WeatherDisplay:10.37,2013-07-23 16:03:00,
2013-07-23 19:04:00,88.0,46.7,29.59,NNW,338,10.7,10.7,24,0.00,CLR,,0.00,WeatherDisplay:10.37,2013-07-23 16:04:00,
2013-07-23 19:05:00,88.0,46.7,29.59,NNW,338,10.4,10.4,24,0.00,CLR,,0.00,WeatherDisplay:10.37,2013-07-23 16:05:00,
2013-07-23 19:06:00,88.0,46.7,29.59,NNW,338,10.4,10.4,24,0.00,CLR,,0.00,WeatherDisplay:10.37,2013-07-23 16:06:00,
2013-07-23 19:08:00,87.6,46.4,29.59,NNW,338,10.4,10.4,24,0.00,CLR,,0.00,WeatherDisplay:10.37,2013-07-23 16:08:00,
2013-07-23 19:09:00,87.6,46.4,29.59,NNW,338,10.4,10.4,24,0.00,CLR,,0.00,WeatherDisplay:10.37,2013-07-23 16:09:00,
2013-07-23 19:11:00,88.0,46.7,29.59,NNW,338,5.8,5.8,24,0.00,CLR,,0.00,WeatherDisplay:10.37,2013-07-23 16:11:00,
2013-07-23 19:12:00,88.0,46.7,29.59,NNW,338,8.1,8.1,24,0.00,CLR,,0.00,WeatherDisplay:10.37,2013-07-23 16:12:00,
2013-07-23 19:13:00,87.8,46.5,29.59,NNW,338,10.4,10.4,24,0.00,CLR,,0.00,WeatherDisplay:10.37,2013-07-23 16:13:00,
2013-07-23 19:14:00,87.8,46.5,29.59,NNW,338,8.1,8.1,24,0.00,CLR,,0.00,WeatherDisplay:10.37,2013-07-23 16:14:00,
2013-07-23 19:17:00,87.6,46.4,29.59,NNE,22,13.8,13.8,24,0.00,CLR,,0.00,WeatherDisplay:10.37,2013-07-23 16:17:00,
2013-07-23 19:19:00,87.6,46.4,29.59,NNW,338,8.1,8.1,24,0.00,CLR,,0.00,WeatherDisplay:10.37,2013-07-23 16:19:00,
2013-07-23 19:22:00,87.8,46.5,29.59,North,0,8.1,8.1,24,0.00,CLR,,0.00,WeatherDisplay:10.37,2013-07-23 16:22:00,
2013-07-23 19:24:00,87.4,46.2,29.59,NW,315,10.4,10.4,24,0.00,CLR,,0.00,WeatherDisplay:10.37,2013-07-23 16:24:00,
2013-07-23 19:25:00,87.4,46.2,29.59,NNW,338,9.2,9.2,24,0.00,CLR,,0.00,WeatherDisplay:10.37,2013-07-23 16:25:00,
2013-07-23 19:27:00,87.4,46.2,29.59,NNE,22,12.8,12.8,24,0.00,CLR,,0.00,WeatherDisplay:10.37,2013-07-23 16:27:00,
2013-07-23 19:29:00,87.3,46.1,29.59,NNW,338,8.1,8.5,24,0.00,CLR,,0.00,WeatherDisplay:10.37,2013-07-23 16:29:00,
2013-07-23 19:30:00,87.3,46.1,29.59,NW,315,8.1,8.1,24,0.00,CLR,,0.00,WeatherDisplay:10.37,2013-07-23 16:30:00,
2013-07-23 19:32:00,86.9,45.8,29.59,NNW,338,12.7,12.7,24,0.00,CLR,,0.00,WeatherDisplay:10.37,2013-07-23 16:32:00,
2013-07-23 19:33:00,86.9,45.8,29.59,NNW,338,8.1,9.0,24,0.00,CLR,,0.00,WeatherDisplay:10.37,2013-07-23 16:33:00,
2013-07-23 19:34:00,86.7,45.6,29.59,NNW,338,11.5,11.5,24,0.00,CLR,,0.00,WeatherDisplay:10.37,2013-07-23 16:34:00,
2013-07-23 19:35:00,86.9,45.8,29.59,NNE,22,10.4,10.4,24,0.00,CLR,,0.00,WeatherDisplay:10.37,2013-07-23 16:35:00,
2013-07-23 19:36:00,86.7,45.6,29.59,NNW,338,10.4,10.4,24,0.00,CLR,,0.00,WeatherDisplay:10.37,2013-07-23 16:36:00,
2013-07-23 19:37:00,86.7,45.6,29.59,North,0,8.1,8.1,24,0.00,CLR,,0.00,WeatherDisplay:10.37,2013-07-23 16:37:00,
2013-07-23 19:38:00,86.7,45.6,29.59,North,0,11.5,11.5,24,0.00,CLR,,0.00,WeatherDisplay:10.37,2013-07-23 16:38:00,
2013-07-23 19:39:00,86.5,45.5,29.59,NNE,22,11.5,11.5,24,0.00,CLR,,0.00,WeatherDisplay:10.37,2013-07-23 16:39:00,
2013-07-23 19:40:00,86.5,45.5,29.59,NNE,22,15.0,15.0,24,0.00,CLR,,0.00,WeatherDisplay:10.37,2013-07-23 16:40:00,
2013-07-23 19:41:00,86.5,45.5,29.59,North,0,9.2,9.2,24,0.00,CLR,,0.00,WeatherDisplay:10.37,2013-07-23 16:41:00,
2013-07-23 19:43:00,86.7,45.6,29.59,NNE,22,6.9,6.9,24,0.00,CLR,,0.00,WeatherDisplay:10.37,2013-07-23 16:43:00,
2013-07-23 19:44:00,86.5,45.5,29.59,NE,45,10.2,10.2,24,0.00,CLR,,0.00,WeatherDisplay:10.37,2013-07-23 16:44:00,
2013-07-23 19:45:00,86.2,45.2,29.59,NNW,338,10.4,10.4,24,0.00,CLR,,0.00,WeatherDisplay:10.37,2013-07-23 16:45:00,
2013-07-23 19:46:00,86.4,45.3,29.59,NNW,338,11.5,11.5,24,0.00,CLR,,0.00,WeatherDisplay:10.37,2013-07-23 16:46:00,
2013-07-23 19:48:00,86.4,45.3,29.59,NNW,338,6.9,6.9,24,0.00,CLR,,0.00,WeatherDisplay:10.37,2013-07-23 16:48:00,
2013-07-23 19:49:00,86.4,45.3,29.59,NNW,338,6.9,6.9,24,0.00,CLR,,0.00,WeatherDisplay:10.37,2013-07-23 16:49:00,
2013-07-23 19:50:00,86.2,45.2,29.59,NNW,338,12.7,12.7,24,0.00,CLR,,0.00,WeatherDisplay:10.37,2013-07-23 16:50:00,
2013-07-23 19:51:00,86.2,45.2,29.59,North,0,11.5,11.5,24,0.00,CLR,,0.00,WeatherDisplay:10.37,2013-07-23 16:51:00,
2013-07-23 19:53:00,85.8,44.8,29.59,NNW,338,8.1,8.1,24,0.00,CLR,,0.00,WeatherDisplay:10.37,2013-07-23 16:53:00,
2013-07-23 19:55:00,85.6,44.7,29.59,NW,315,11.5,11.5,24,0.00,CLR,,0.00,WeatherDisplay:10.37,2013-07-23 16:55:00,
2013-07-23 19:56:00,85.6,44.7,29.59,NNW,338,11.5,11.5,24,0.00,CLR,,0.00,WeatherDisplay:10.37,2013-07-23 16:56:00,
2013-07-23 19:58:00,85.5,44.5,29.59,NNW,338,12.7,12.7,24,0.00,CLR,,0.00,WeatherDisplay:10.37,2013-07-23 16:58:00,
2013-07-23 19:59:00,85.5,44.5,29.59,North,0,12.7,12.7,24,0.00,CLR,,0.00,WeatherDisplay:10.37,2013-07-23 16:59:00,
2013-07-23 20:00:00,85.6,44.7,29.59,North,0,5.8,5.8,24,0.00,CLR,,0.00,WeatherDisplay:10.37,2013-07-23 17:00:00,
2013-07-23 20:01:00,85.6,44.7,29.59,NW,315,4.6,4.6,24,0.00,CLR,,0.00,WeatherDisplay:10.37,2013-07-23 17:01:00,
2013-07-23 20:03:00,85.3,44.4,29.59,NNW,338,11.5,11.5,24,0.00,CLR,,0.00,WeatherDisplay:10.37,2013-07-23 17:03:00,
2013-07-23 20:04:00,85.3,44.4,29.59,NNE,22,11.5,11.5,24,0.00,CLR,,0.00,WeatherDisplay:10.37,2013-07-23 17:04:00,
2013-07-23 20:05:00,85.3,44.4,29.59,NNW,338,10.4,10.4,24,0.00,CLR,,0.00,WeatherDisplay:10.37,2013-07-23 17:05:00,
2013-07-23 20:06:00,85.3,44.4,29.59,NNE,22,10.4,10.4,24,0.00,CLR,,0.00,WeatherDisplay:10.37,2013-07-23 17:06:00,
2013-07-23 20:07:00,85.1,44.2,29.59,North,0,10.4,10.4,24,0.00,CLR,,0.00,WeatherDisplay:10.37,2013-07-23 17:07:00,
2013-07-23 20:09:00,84.9,44.1,29.59,NNW,338,10.4,10.4,24,0.00,CLR,,0.00,WeatherDisplay:10.37,2013-07-23 17:09:00,
2013-07-23 20:10:00,84.7,43.9,29.59,NNE,22,10.4,10.4,24,0.00,CLR,,0.00,WeatherDisplay:10.37,2013-07-23 17:10:00,
2013-07-23 20:11:00,84.7,43.9,29.59,NNW,338,11.5,11.5,24,0.00,CLR,,0.00,WeatherDisplay:10.37,2013-07-23 17:11:00,
2013-07-23 20:12:00,84.6,43.8,29.59,North,0,10.7,10.7,24,0.00,CLR,,0.00,WeatherDisplay:10.37,2013-07-23 17:12:00,
2013-07-23 20:14:00,84.4,43.6,29.59,NNE,22,12.7,12.7,24,0.00,CLR,,0.00,WeatherDisplay:10.37,2013-07-23 17:14:00,
2013-07-23 20:15:00,84.2,43.5,29.59,North,0,11.5,11.5,24,0.00,CLR,,0.00,WeatherDisplay:10.37,2013-07-23 17:15:00,
2013-07-23 20:16:00,84.0,44.4,29.59,NNE,22,15.0,15.0,25,0.00,CLR,,0.00,WeatherDisplay:10.37,2013-07-23 17:16:00,
2013-07-23 20:17:00,84.0,44.4,29.59,NNE,22,10.4,10.4,25,0.00,CLR,,0.00,WeatherDisplay:10.37,2013-07-23 17:17:00,
2013-07-23 20:19:00,83.8,44.3,29.59,NNW,338,15.0,15.0,25,0.00,CLR,,0.00,WeatherDisplay:10.37,2013-07-23 17:19:00,
2013-07-23 20:20:00,83.8,44.3,29.59,North,0,15.0,15.0,25,0.00,CLR,,0.00,WeatherDisplay:10.37,2013-07-23 17:20:00,
2013-07-23 20:21:00,83.7,44.1,29.59,NNE,22,12.7,12.7,25,0.00,CLR,,0.00,WeatherDisplay:10.37,2013-07-23 17:21:00,
2013-07-23 20:22:00,83.7,44.1,29.59,NNW,338,13.2,13.2,25,0.00,CLR,,0.00,WeatherDisplay:10.37,2013-07-23 17:22:00,
2013-07-23 20:24:00,83.5,43.9,29.59,NNE,22,8.1,8.1,25,0.00,CLR,,0.00,WeatherDisplay:10.37,2013-07-23 17:24:00,
2013-07-23 20:26:00,83.1,43.6,29.59,NNW,338,8.7,8.7,25,0.00,CLR,,0.00,WeatherDisplay:10.37,2013-07-23 17:26:00,
2013-07-23 20:27:00,83.1,43.6,29.59,NNW,338,9.2,9.2,25,0.00,CLR,,0.00,WeatherDisplay:10.37,2013-07-23 17:27:00,
2013-07-23 20:29:00,82.9,43.5,29.59,ENE,68,12.7,12.7,25,0.00,CLR,,0.00,WeatherDisplay:10.37,2013-07-23 17:29:00,
2013-07-23 20:31:00,82.8,43.3,29.59,NNW,338,11.5,11.5,25,0.00,CLR,,0.00,WeatherDisplay:10.37,2013-07-23 17:31:00,
2013-07-23 20:32:00,82.6,43.2,29.59,NNE,22,11.5,11.5,25,0.00,CLR,,0.00,WeatherDisplay:10.37,2013-07-23 17:32:00,
2013-07-23 20:35:00,82.4,43.1,29.59,North,9,7.0,12.0,25,0.00,CLR,,0.00,WeatherDisplay:10.37,2013-07-23 17:35:00,
2013-07-23 20:36:00,82.4,43.0,29.59,North,0,11.5,11.5,25,0.00,CLR,,0.00,WeatherDisplay:10.37,2013-07-23 17:36:00,
2013-07-23 20:37:00,82.4,43.0,29.59,NNE,22,11.5,11.5,25,0.00,CLR,,0.00,WeatherDisplay:10.37,2013-07-23 17:37:00,
2013-07-23 20:38:00,82.2,42.9,29.62,NE,45,10.4,10.4,25,0.00,CLR,,0.00,WeatherDisplay:10.37,2013-07-23 17:38:00,
2013-07-23 20:40:00,82.0,42.7,29.62,NNE,22,12.1,12.1,25,0.00,CLR,,0.00,WeatherDisplay:10.37,2013-07-23 17:40:00,
2013-07-23 20:42:00,82.0,42.7,29.62,North,0,10.0,10.0,25,0.00,CLR,,0.00,WeatherDisplay:10.37,2013-07-23 17:42:00,
2013-07-23 20:43:00,81.9,42.6,29.62,North,0,10.4,10.4,25,0.00,CLR,,0.00,WeatherDisplay:10.37,2013-07-23 17:43:00,
2013-07-23 20:45:00,81.9,42.6,29.62,NE,45,8.1,8.1,25,0.00,CLR,,0.00,WeatherDisplay:10.37,2013-07-23 17:45:00,
2013-07-23 20:47:00,81.7,42.4,29.62,North,0,10.4,10.4,25,0.00,CLR,,0.00,WeatherDisplay:10.37,2013-07-23 17:47:00,
2013-07-23 20:48:00,81.7,42.4,29.62,NNE,22,10.4,10.4,25,0.00,CLR,,0.00,WeatherDisplay:10.37,2013-07-23 17:48:00,
2013-07-23 20:49:00,81.5,42.3,29.62,NE,45,8.1,8.1,25,0.00,CLR,,0.00,WeatherDisplay:10.37,2013-07-23 17:49:00,
2013-07-23 20:50:00,81.5,42.3,29.62,NNE,22,8.1,8.1,25,0.00,CLR,,0.00,WeatherDisplay:10.37,2013-07-23 17:50:00,
2013-07-23 20:51:00,81.5,42.3,29.62,NNE,22,6.9,6.9,25,0.00,CLR,,0.00,WeatherDisplay:10.37,2013-07-23 17:51:00,
2013-07-23 20:54:00,81.3,42.1,29.62,North,0,10.4,10.4,25,0.00,CLR,,0.00,WeatherDisplay:10.37,2013-07-23 17:54:00,
2013-07-23 20:56:00,81.1,42.0,29.62,North,0,6.9,6.9,25,0.00,CLR,,0.00,WeatherDisplay:10.37,2013-07-23 17:56:00,
2013-07-23 20:59:00,81.0,41.8,29.62,NE,45,12.7,12.7,25,0.00,CLR,,0.00,WeatherDisplay:10.37,2013-07-23 17:59:00,
2013-07-23 21:00:00,81.0,41.8,29.62,NNE,15,8.0,13.0,25,0.00,CLR,,0.00,WeatherDisplay:10.37,2013-07-23 18:00:00,
2013-07-23 21:01:00,81.0,41.8,29.62,NNW,338,9.2,9.2,25,0.00,CLR,,0.00,WeatherDisplay:10.37,2013-07-23 18:01:00,
2013-07-23 21:02:00,80.8,41.7,29.62,NE,45,7.6,7.6,25,0.00,CLR,,0.00,WeatherDisplay:10.37,2013-07-23 18:02:00,
2013-07-23 21:04:00,80.6,41.5,29.62,NNE,22,8.1,8.1,25,0.00,CLR,,0.00,WeatherDisplay:10.37,2013-07-23 18:04:00,
2013-07-23 21:05:00,80.8,41.7,29.62,North,9,6.0,10.0,25,0.00,CLR,,0.00,WeatherDisplay:10.37,2013-07-23 18:05:00,
2013-07-23 21:06:00,80.6,41.5,29.62,NNW,338,8.1,8.1,25,0.00,CLR,,0.00,WeatherDisplay:10.37,2013-07-23 18:06:00,
2013-07-23 21:08:00,80.6,41.5,29.62,NNW,338,8.1,8.1,25,0.00,CLR,,0.00,WeatherDisplay:10.37,2013-07-23 18:08:00,
2013-07-23 21:11:00,80.4,42.4,29.62,North,0,8.1,8.1,26,0.00,CLR,,0.00,WeatherDisplay:10.37,2013-07-23 18:11:00,
2013-07-23 21:12:00,80.4,42.4,29.62,NNE,22,8.1,8.1,26,0.00,CLR,,0.00,WeatherDisplay:10.37,2013-07-23 18:12:00,
2013-07-23 21:15:00,80.2,42.2,29.62,NNW,338,8.1,8.1,26,0.00,CLR,,0.00,WeatherDisplay:10.37,2013-07-23 18:15:00,
2013-07-23 21:16:00,80.2,42.2,29.62,NNW,338,8.1,8.1,26,0.00,CLR,,0.00,WeatherDisplay:10.37,2013-07-23 18:16:00,
2013-07-23 21:18:00,80.1,42.1,29.62,NW,315,9.2,9.2,26,0.00,CLR,,0.00,WeatherDisplay:10.37,2013-07-23 18:18:00,
2013-07-23 21:20:00,80.1,42.1,29.62,NNW,338,8.1,8.1,26,0.00,CLR,,0.00,WeatherDisplay:10.37,2013-07-23 18:20:00,
2013-07-23 21:21:00,80.1,42.1,29.62,NNE,22,4.3,4.3,26,0.00,CLR,,0.00,WeatherDisplay:10.37,2013-07-23 18:21:00,
2013-07-23 21:23:00,79.9,41.9,29.62,NNE,22,5.8,5.8,26,0.00,CLR,,0.00,WeatherDisplay:10.37,2013-07-23 18:23:00,
2013-07-23 21:25:00,79.9,41.9,29.62,NNE,22,6.9,6.9,26,0.00,CLR,,0.00,WeatherDisplay:10.37,2013-07-23 18:25:00,
2013-07-23 21:26:00,79.9,41.9,29.62,North,0,7.4,7.4,26,0.00,CLR,,0.00,WeatherDisplay:10.37,2013-07-23 18:26:00,
2013-07-23 21:29:00,79.7,41.8,29.62,NNW,338,10.4,10.4,26,0.00,CLR,,0.00,WeatherDisplay:10.37,2013-07-23 18:29:00,
2013-07-23 21:30:00,79.7,41.8,29.62,NNE,22,10.4,10.4,26,0.00,CLR,,0.00,WeatherDisplay:10.37,2013-07-23 18:30:00,
2013-07-23 21:32:00,79.7,41.8,29.62,NNW,338,7.4,7.4,26,0.00,CLR,,0.00,WeatherDisplay:10.37,2013-07-23 18:32:00,
2013-07-23 21:35:00,79.5,41.6,29.62,North,0,6.0,9.0,26,0.00,CLR,,0.00,WeatherDisplay:10.37,2013-07-23 18:35:00,
2013-07-23 21:36:00,79.5,41.6,29.62,NE,45,8.1,8.1,26,0.00,CLR,,0.00,WeatherDisplay:10.37,2013-07-23 18:36:00,
2013-07-23 21:37:00,79.5,41.6,29.62,NNW,338,8.1,8.1,26,0.00,CLR,,0.00,WeatherDisplay:10.37,2013-07-23 18:37:00,
2013-07-23 21:40:00,79.5,41.6,29.62,NNW,338,6.9,6.9,26,0.00,CLR,,0.00,WeatherDisplay:10.37,2013-07-23 18:40:00,
2013-07-23 21:42:00,79.5,41.6,29.62,North,0,4.6,5.4,26,0.00,CLR,,0.00,WeatherDisplay:10.37,2013-07-23 18:42:00,
2013-07-23 21:45:00,79.3,41.5,29.62,North,0,5.8,5.8,26,0.00,CLR,,0.00,WeatherDisplay:10.37,2013-07-23 18:45:00,
2013-07-23 21:47:00,79.3,41.5,29.62,NNW,338,4.6,4.6,26,0.00,CLR,,0.00,WeatherDisplay:10.37,2013-07-23 18:47:00,
2013-07-23 21:49:00,79.2,41.3,29.62,NNW,338,6.9,6.9,26,0.00,CLR,,0.00,WeatherDisplay:10.37,2013-07-23 18:49:00,
2013-07-23 21:51:00,79.2,41.3,29.62,North,0,3.8,3.8,26,0.00,CLR,,0.00,WeatherDisplay:10.37,2013-07-23 18:51:00,
2013-07-23 21:52:00,79.0,41.2,29.62,North,0,4.6,4.7,26,0.00,CLR,,0.00,WeatherDisplay:10.37,2013-07-23 18:52:00,
2013-07-23 21:54:00,79.0,41.2,29.62,North,0,3.3,3.3,26,0.00,CLR,,0.00,WeatherDisplay:10.37,2013-07-23 18:54:00,
2013-07-23 21:57:00,79.0,41.2,29.62,NNW,338,5.8,5.8,26,0.00,CLR,,0.00,WeatherDisplay:10.37,2013-07-23 18:57:00,
2013-07-23 21:58:00,79.0,41.2,29.62,NNW,338,6.9,6.9,26,0.00,CLR,,0.00,WeatherDisplay:10.37,2013-07-23 18:58:00,
2013-07-23 21:59:00,79.0,41.2,29.62,NNW,338,6.9,6.9,26,0.00,CLR,,0.00,WeatherDisplay:10.37,2013-07-23 18:59:00,
2013-07-23 22:00:00,79.0,41.2,29.62,NNW,338,6.0,6.0,26,0.00,CLR,,0.00,WeatherDisplay:10.37,2013-07-23 19:00:00,
2013-07-23 22:02:00,78.8,41.0,29.62,NNW,338,5.8,5.8,26,0.00,CLR,,0.00,WeatherDisplay:10.37,2013-07-23 19:02:00,
2013-07-23 22:03:00,78.8,41.0,29.62,North,0,5.9,5.9,26,0.00,CLR,,0.00,WeatherDisplay:10.37,2013-07-23 19:03:00,
2013-07-23 22:05:00,78.8,41.0,29.62,North,0,8.5,8.5,26,0.00,CLR,,0.00,WeatherDisplay:10.37,2013-07-23 19:05:00,
2013-07-23 22:06:00,78.8,41.0,29.62,NNE,22,8.1,8.1,26,0.00,CLR,,0.00,WeatherDisplay:10.37,2013-07-23 19:06:00,
2013-07-23 22:07:00,78.8,41.0,29.62,NNW,338,6.4,6.4,26,0.00,CLR,,0.00,WeatherDisplay:10.37,2013-07-23 19:07:00,
2013-07-23 22:08:00,78.8,41.0,29.59,North,0,8.1,8.1,26,0.00,CLR,,0.00,WeatherDisplay:10.37,2013-07-23 19:08:00,
2013-07-23 22:10:00,78.8,41.0,29.59,NNW,338,5.8,5.8,26,0.00,CLR,,0.00,WeatherDisplay:10.37,2013-07-23 19:10:00,
2013-07-23 22:11:00,78.8,41.0,29.59,NNW,338,4.6,4.6,26,0.00,CLR,,0.00,WeatherDisplay:10.37,2013-07-23 19:11:00,
2013-07-23 22:13:00,78.6,40.9,29.59,NNW,338,5.8,5.8,26,0.00,CLR,,0.00,WeatherDisplay:10.37,2013-07-23 19:13:00,
2013-07-23 22:14:00,78.6,40.9,29.59,NNW,338,6.9,6.9,26,0.00,CLR,,0.00,WeatherDisplay:10.37,2013-07-23 19:14:00,
2013-07-23 22:16:00,78.6,40.9,29.59,NNW,338,6.9,6.9,26,0.00,CLR,,0.00,WeatherDisplay:10.37,2013-07-23 19:16:00,
2013-07-23 22:17:00,78.6,40.9,29.59,NW,315,4.6,4.6,26,0.00,CLR,,0.00,WeatherDisplay:10.37,2013-07-23 19:17:00,
2013-07-23 22:19:00,78.4,40.7,29.59,NNW,338,5.8,5.8,26,0.00,CLR,,0.00,WeatherDisplay:10.37,2013-07-23 19:19:00,
2013-07-23 22:21:00,78.4,40.7,29.59,NNW,338,6.2,6.2,26,0.00,CLR,,0.00,WeatherDisplay:10.37,2013-07-23 19:21:00,
2013-07-23 22:22:00,78.4,40.7,29.59,North,0,5.8,5.8,26,0.00,CLR,,0.00,WeatherDisplay:10.37,2013-07-23 19:22:00,
2013-07-23 22:24:00,78.4,40.7,29.59,NW,315,5.8,5.8,26,0.00,CLR,,0.00,WeatherDisplay:10.37,2013-07-23 19:24:00,
2013-07-23 22:26:00,78.4,40.7,29.59,NW,315,5.8,5.8,26,0.00,CLR,,0.00,WeatherDisplay:10.37,2013-07-23 19:26:00,
2013-07-23 22:28:00,78.3,40.5,29.59,NW,315,4.9,4.9,26,0.00,CLR,,0.00,WeatherDisplay:10.37,2013-07-23 19:28:00,
2013-07-23 22:30:00,78.3,40.5,29.59,WNW,292,5.8,5.8,26,0.00,CLR,,0.00,WeatherDisplay:10.37,2013-07-23 19:30:00,
2013-07-23 22:31:00,78.3,40.5,29.59,NW,315,3.1,3.1,26,0.00,CLR,,0.00,WeatherDisplay:10.37,2013-07-23 19:31:00,
2013-07-23 22:34:00,78.3,40.5,29.59,NW,315,5.8,5.8,26,0.00,CLR,,0.00,WeatherDisplay:10.37,2013-07-23 19:34:00,
2013-07-23 22:35:00,78.3,40.5,29.59,NW,315,4.0,4.0,26,0.00,CLR,,0.00,WeatherDisplay:10.37,2013-07-23 19:35:00,
2013-07-23 22:37:00,78.1,40.4,29.59,NW,315,5.8,5.8,26,0.00,CLR,,0.00,WeatherDisplay:10.37,2013-07-23 19:37:00,
2013-07-23 22:38:00,78.1,40.4,29.62,WNW,292,4.6,4.6,26,0.00,CLR,,0.00,WeatherDisplay:10.37,2013-07-23 19:38:00,
2013-07-23 22:40:00,78.1,40.4,29.62,NW,313,2.0,6.0,26,0.00,CLR,,0.00,WeatherDisplay:10.37,2013-07-23 19:40:00,
2013-07-23 22:41:00,78.1,40.4,29.62,WNW,292,4.9,4.9,26,0.00,CLR,,0.00,WeatherDisplay:10.37,2013-07-23 19:41:00,
2013-07-23 22:42:00,78.1,40.4,29.62,NNW,338,4.6,4.6,26,0.00,CLR,,0.00,WeatherDisplay:10.37,2013-07-23 19:42:00,
2013-07-23 22:43:00,78.1,40.4,29.62,NNW,338,4.6,4.6,26,0.00,CLR,,0.00,WeatherDisplay:10.37,2013-07-23 19:43:00,
2013-07-23 22:45:00,77.9,40.2,29.62,NNW,338,6.2,6.2,26,0.00,CLR,,0.00,WeatherDisplay:10.37,2013-07-23 19:45:00,
2013-07-23 22:46:00,78.1,40.4,29.62,NW,315,8.1,8.1,26,0.00,CLR,,0.00,WeatherDisplay:10.37,2013-07-23 19:46:00,
2013-07-23 22:48:00,78.1,40.4,29.62,NNW,338,4.6,4.6,26,0.00,CLR,,0.00,WeatherDisplay:10.37,2013-07-23 19:48:00,
2013-07-23 22:49:00,78.1,40.4,29.62,NW,315,5.8,5.8,26,0.00,CLR,,0.00,WeatherDisplay:10.37,2013-07-23 19:49:00,
2013-07-23 22:50:00,78.1,40.4,29.62,NNW,338,6.9,6.9,26,0.00,CLR,,0.00,WeatherDisplay:10.37,2013-07-23 19:50:00,
2013-07-23 22:52:00,78.1,40.4,29.62,NNW,338,2.9,2.9,26,0.00,CLR,,0.00,WeatherDisplay:10.37,2013-07-23 19:52:00,
2013-07-23 22:54:00,77.9,40.2,29.62,NNW,338,3.6,3.6,26,0.00,CLR,,0.00,WeatherDisplay:10.37,2013-07-23 19:54:00,
2013-07-23 22:57:00,77.9,40.2,29.62,WNW,292,3.5,3.5,26,0.00,CLR,,0.00,WeatherDisplay:10.37,2013-07-23 19:57:00,
2013-07-23 22:58:00,77.9,40.2,29.62,NW,315,5.8,5.8,26,0.00,CLR,,0.00,WeatherDisplay:10.37,2013-07-23 19:58:00,
2013-07-23 22:59:00,77.9,40.2,29.62,NNW,338,5.8,5.8,26,0.00,CLR,,0.00,WeatherDisplay:10.37,2013-07-23 19:59:00,
2013-07-23 23:03:00,77.9,40.2,29.62,NW,315,3.6,3.6,26,0.00,CLR,,0.00,WeatherDisplay:10.37,2013-07-23 20:03:00,
2013-07-23 23:04:00,77.9,40.2,29.62,NW,315,3.5,3.5,26,0.00,CLR,,0.00,WeatherDisplay:10.37,2013-07-23 20:04:00,
2013-07-23 23:08:00,77.7,40.1,29.62,WNW,292,4.0,4.0,26,0.00,CLR,,0.00,WeatherDisplay:10.37,2013-07-23 20:08:00,
2013-07-23 23:09:00,77.7,40.1,29.62,WNW,292,4.6,4.6,26,0.00,CLR,,0.00,WeatherDisplay:10.37,2013-07-23 20:09:00,
2013-07-23 23:10:00,77.7,40.1,29.62,WNW,292,3.5,3.5,26,0.00,CLR,,0.00,WeatherDisplay:10.37,2013-07-23 20:10:00,
2013-07-23 23:13:00,77.7,40.1,29.62,WNW,292,3.5,3.5,26,0.00,CLR,,0.00,WeatherDisplay:10.37,2013-07-23 20:13:00,
2013-07-23 23:15:00,77.7,40.1,29.62,NW,315,5.8,5.8,26,0.00,CLR,,0.00,WeatherDisplay:10.37,2013-07-23 20:15:00,
2013-07-23 23:16:00,77.7,40.1,29.62,WNW,292,4.6,4.6,26,0.00,CLR,,0.00,WeatherDisplay:10.37,2013-07-23 20:16:00,
2013-07-23 23:19:00,77.7,40.1,29.62,NNW,338,4.6,4.6,26,0.00,CLR,,0.00,WeatherDisplay:10.37,2013-07-23 20:19:00,
2013-07-23 23:20:00,77.7,40.1,29.62,WNW,303,2.0,5.0,26,0.00,CLR,,0.00,WeatherDisplay:10.37,2013-07-23 20:20:00,
2013-07-23 23:22:00,77.7,40.1,29.62,WNW,292,4.6,4.6,26,0.00,CLR,,0.00,WeatherDisplay:10.37,2013-07-23 20:22:00,
2013-07-23 23:25:00,77.7,40.1,29.62,WNW,292,4.6,4.6,26,0.00,CLR,,0.00,WeatherDisplay:10.37,2013-07-23 20:25:00,
2013-07-23 23:26:00,77.7,40.1,29.62,NW,315,4.9,4.9,26,0.00,CLR,,0.00,WeatherDisplay:10.37,2013-07-23 20:26:00,
2013-07-23 23:27:00,77.5,39.9,29.62,WNW,292,4.6,4.6,26,0.00,CLR,,0.00,WeatherDisplay:10.37,2013-07-23 20:27:00,
2013-07-23 23:29:00,77.7,40.1,29.62,WNW,292,3.5,3.5,26,0.00,CLR,,0.00,WeatherDisplay:10.37,2013-07-23 20:29:00,
2013-07-23 23:31:00,77.7,40.1,29.62,WNW,292,4.6,4.6,26,0.00,CLR,,0.00,WeatherDisplay:10.37,2013-07-23 20:31:00,
2013-07-23 23:33:00,77.5,39.9,29.62,NW,315,5.8,5.8,26,0.00,CLR,,0.00,WeatherDisplay:10.37,2013-07-23 20:33:00,
2013-07-23 23:34:00,77.5,39.9,29.62,NW,315,4.6,4.6,26,0.00,CLR,,0.00,WeatherDisplay:10.37,2013-07-23 20:34:00,
2013-07-23 23:37:00,77.7,40.1,29.62,WNW,292,4.7,4.7,26,0.00,CLR,,0.00,WeatherDisplay:10.37,2013-07-23 20:37:00,
2013-07-23 23:39:00,77.7,40.1,29.59,NNW,338,4.6,4.6,26,0.00,CLR,,0.00,WeatherDisplay:10.37,2013-07-23 20:39:00,
2013-07-23 23:42:00,77.7,40.1,29.59,WNW,292,4.6,4.6,26,0.00,CLR,,0.00,WeatherDisplay:10.37,2013-07-23 20:42:00,
2013-07-23 23:44:00,77.7,40.1,29.59,NNW,338,6.9,6.9,26,0.00,CLR,,0.00,WeatherDisplay:10.37,2013-07-23 20:44:00,
2013-07-23 23:47:00,77.7,40.1,29.59,NW,315,2.3,2.3,26,0.00,CLR,,0.00,WeatherDisplay:10.37,2013-07-23 20:47:00,
2013-07-23 23:48:00,77.7,40.1,29.59,NNW,338,3.8,3.8,26,0.00,CLR,,0.00,WeatherDisplay:10.37,2013-07-23 20:48:00,
2013-07-23 23:49:00,77.7,40.1,29.59,NW,315,4.6,4.6,26,0.00,CLR,,0.00,WeatherDisplay:10.37,2013-07-23 20:49:00,
2013-07-23 23:51:00,77.7,40.1,29.59,NW,315,5.4,5.4,26,0.00,CLR,,0.00,WeatherDisplay:10.37,2013-07-23 20:51:00,
2013-07-23 23:52:00,77.7,40.1,29.59,WNW,292,5.8,5.8,26,0.00,CLR,,0.00,WeatherDisplay:10.37,2013-07-23 20:52:00,
2013-07-23 23:53:00,77.7,40.1,29.62,WNW,292,3.3,3.3,26,0.00,CLR,,0.00,WeatherDisplay:10.37,2013-07-23 20:53:00,
2013-07-23 23:55:00,77.7,40.1,29.62,NNW,338,3.5,3.5,26,0.00,CLR,,0.00,WeatherDisplay:10.37,2013-07-23 20:55:00,
2013-07-23 23:56:00,77.7,40.1,29.62,NNW,338,3.5,3.5,26,0.00,CLR,,0.00,WeatherDisplay:10.37,2013-07-23 20:56:00,
2013-07-23 23:57:00,77.7,40.1,29.62,NNW,338,2.3,2.3,26,0.00,CLR,,0.00,WeatherDisplay:10.37,2013-07-23 20:57:00,
2013-07-23 23:59:00,77.5,39.9,29.62,NW,315,3.5,3.5,26,0.00,CLR,,0.00,WeatherDisplay:10.37,2013-07-23 20:59:00,